Wetterdaten: Donnerstag, 21.10.2021
Datum Zeit Temp. Aussen Temp. o. S. Temp +5cm Feuchte Auss Luftdruck Regen Sonnenschein Regendauer Solar Windben Empfang
21.10.2021 00:00 14,8 C 13,9 C 12,3 C 92 % 996,2 hPa 0,0 l/m 0 min 0 min 0 W/m 3,2 km/h (1 Bft) 95,74 %
21.10.2021 00:02 14,8 C 13,9 C 12,3 C 92 % 996,2 hPa 0,0 l/m 0 min 0 min 0 W/m 6,4 km/h (2 Bft) 93,18 %
21.10.2021 00:04 14,8 C 13,9 C 12,3 C 92 % 996,1 hPa 0,0 l/m 0 min 0 min 0 W/m 12,9 km/h (3 Bft) 97,87 %
21.10.2021 00:08 14,8 C 14,4 C 12,3 C 92 % 996,0 hPa 0,0 l/m 0 min 0 min 0 W/m 12,9 km/h (3 Bft) 100,00 %
21.10.2021 00:10 14,8 C 14,4 C 12,3 C 92 % 995,9 hPa 0,0 l/m 0 min 0 min 0 W/m 6,4 km/h (2 Bft) 97,87 %
21.10.2021 00:12 14,8 C 14,4 C 12,3 C 92 % 995,8 hPa 0,0 l/m 0 min 0 min 0 W/m 12,9 km/h (3 Bft) 100,00 %
21.10.2021 00:14 14,8 C 14,4 C 12,3 C 92 % 995,8 hPa 0,0 l/m 0 min 0 min 0 W/m 6,4 km/h (2 Bft) 100,00 %
21.10.2021 00:16 14,8 C 14,4 C 12,3 C 92 % 995,7 hPa 0,0 l/m 0 min 0 min 0 W/m 3,2 km/h (1 Bft) 97,87 %
21.10.2021 00:18 14,8 C 14,4 C 12,3 C 92 % 995,6 hPa 0,0 l/m 0 min 0 min 0 W/m 6,4 km/h (2 Bft) 100,00 %
21.10.2021 00:20 14,8 C 14,4 C 12,3 C 92 % 995,5 hPa 0,0 l/m 0 min 0 min 0 W/m 12,9 km/h (3 Bft) 100,00 %
21.10.2021 00:22 14,8 C 14,4 C 12,3 C 92 % 995,5 hPa 0,0 l/m 0 min 0 min 0 W/m 9,7 km/h (2 Bft) 100,00 %
21.10.2021 00:24 14,8 C 14,4 C 12,3 C 92 % 995,4 hPa 0,0 l/m 0 min 0 min 0 W/m 9,7 km/h (2 Bft) 100,00 %
21.10.2021 00:26 14,8 C 14,4 C 12,3 C 92 % 995,3 hPa 0,0 l/m 0 min 0 min 0 W/m 9,7 km/h (2 Bft) 97,87 %
21.10.2021 00:28 14,8 C 14,4 C 12,3 C 92 % 995,3 hPa 0,0 l/m 0 min 0 min 0 W/m 12,9 km/h (3 Bft) 100,00 %
21.10.2021 00:30 14,8 C 14,4 C 12,3 C 91 % 995,2 hPa 0,0 l/m 0 min 0 min 0 W/m 9,7 km/h (2 Bft) 100,00 %
21.10.2021 00:32 14,9 C 14,4 C 12,3 C 91 % 995,2 hPa 0,0 l/m 0 min 0 min 0 W/m 9,7 km/h (2 Bft) 100,00 %
21.10.2021 00:34 14,9 C 14,4 C 12,3 C 91 % 995,1 hPa 0,0 l/m 0 min 0 min 0 W/m 12,9 km/h (3 Bft) 97,87 %
21.10.2021 00:36 14,9 C 14,4 C 12,3 C 91 % 995,1 hPa 0,0 l/m 0 min 0 min 0 W/m 12,9 km/h (3 Bft) 100,00 %
21.10.2021 00:38 14,9 C 14,4 C 12,3 C 91 % 994,9 hPa 0,0 l/m 0 min 0 min 0 W/m 12,9 km/h (3 Bft) 100,00 %
21.10.2021 00:40 14,9 C 14,4 C 12,3 C 91 % 994,9 hPa 0,0 l/m 0 min 0 min 0 W/m 9,7 km/h (2 Bft) 100,00 %
21.10.2021 00:42 14,9 C 14,4 C 12,3 C 91 % 994,9 hPa 0,0 l/m 0 min 0 min 0 W/m 12,9 km/h (3 Bft) 100,00 %
21.10.2021 00:44 14,9 C 14,4 C 12,3 C 91 % 994,9 hPa 0,0 l/m 0 min 0 min 0 W/m 6,4 km/h (2 Bft) 100,00 %
21.10.2021 00:46 14,9 C 14,4 C 12,3 C 91 % 994,8 hPa 0,0 l/m 0 min 0 min 0 W/m 6,4 km/h (2 Bft) 100,00 %
21.10.2021 00:48 14,9 C 14,4 C 12,3 C 91 % 994,8 hPa 0,0 l/m 0 min 0 min 0 W/m 12,9 km/h (3 Bft) 100,00 %
21.10.2021 00:50 14,9 C 14,4 C 12,3 C 91 % 994,7 hPa 0,0 l/m 0 min 0 min 0 W/m 16,1 km/h (3 Bft) 100,00 %
21.10.2021 00:52 15,0 C 14,4 C 12,3 C 91 % 994,6 hPa 0,0 l/m 0 min 0 min 0 W/m 16,1 km/h (3 Bft) 100,00 %
21.10.2021 00:54 15,0 C 14,4 C 12,3 C 90 % 994,5 hPa 0,0 l/m 0 min 0 min 0 W/m 12,9 km/h (3 Bft) 100,00 %
21.10.2021 00:56 15,0 C 14,4 C 12,3 C 90 % 994,5 hPa 0,0 l/m 0 min 0 min 0 W/m 12,9 km/h (3 Bft) 100,00 %
21.10.2021 00:58 15,0 C 14,4 C 12,3 C 90 % 994,4 hPa 0,0 l/m 0 min 0 min 0 W/m 12,9 km/h (3 Bft) 100,00 %
21.10.2021 01:00 15,1 C 15,0 C 12,3 C 90 % 994,3 hPa 0,0 l/m 0 min 0 min 0 W/m 16,1 km/h (3 Bft) 100,00 %
21.10.2021 01:02 15,1 C 15,0 C 12,3 C 90 % 994,2 hPa 0,0 l/m 0 min 0 min 0 W/m 6,4 km/h (2 Bft) 100,00 %
21.10.2021 01:04 15,1 C 14,4 C 12,3 C 90 % 994,1 hPa 0,0 l/m 0 min 0 min 0 W/m 6,4 km/h (2 Bft) 100,00 %
21.10.2021 01:06 15,1 C 14,4 C 12,3 C 90 % 994,0 hPa 0,0 l/m 0 min 0 min 0 W/m 12,9 km/h (3 Bft) 100,00 %
21.10.2021 01:08 15,1 C 15,0 C 12,3 C 90 % 993,9 hPa 0,0 l/m 0 min 0 min 0 W/m 16,1 km/h (3 Bft) 100,00 %
21.10.2021 01:10 15,2 C 15,0 C 12,3 C 89 % 993,8 hPa 0,0 l/m 0 min 0 min 0 W/m 9,7 km/h (2 Bft) 100,00 %
21.10.2021 01:12 15,2 C 14,4 C 12,3 C 89 % 993,7 hPa 0,0 l/m 0 min 0 min 0 W/m 3,2 km/h (1 Bft) 100,00 %
21.10.2021 01:14 15,2 C 14,4 C 12,3 C 89 % 993,6 hPa 0,0 l/m 0 min 0 min 0 W/m 6,4 km/h (2 Bft) 100,00 %
21.10.2021 01:16 15,2 C 14,4 C 12,3 C 89 % 993,5 hPa 0,0 l/m 0 min 0 min 0 W/m 12,9 km/h (3 Bft) 100,00 %
21.10.2021 01:18 15,2 C 15,0 C 12,3 C 89 % 993,3 hPa 0,0 l/m 0 min 0 min 0 W/m 12,9 km/h (3 Bft) 100,00 %
21.10.2021 01:20 15,2 C 15,0 C 12,3 C 89 % 993,2 hPa 0,0 l/m 0 min 0 min 0 W/m 12,9 km/h (3 Bft) 100,00 %
21.10.2021 01:22 15,3 C 15,0 C 12,3 C 88 % 993,1 hPa 0,0 l/m 0 min 0 min 0 W/m 16,1 km/h (3 Bft) 100,00 %
21.10.2021 01:24 15,3 C 15,0 C 12,3 C 88 % 992,9 hPa 0,0 l/m 0 min 0 min 0 W/m 12,9 km/h (3 Bft) 100,00 %
21.10.2021 01:26 15,3 C 14,4 C 12,3 C 88 % 992,8 hPa 0,0 l/m 0 min 0 min 0 W/m 16,1 km/h (3 Bft) 97,87 %
21.10.2021 01:28 15,3 C 14,4 C 12,3 C 88 % 992,7 hPa 0,0 l/m 0 min 0 min 0 W/m 12,9 km/h (3 Bft) 97,87 %
21.10.2021 01:30 15,3 C 15,0 C 12,3 C 88 % 992,6 hPa 0,0 l/m 0 min 0 min 0 W/m 16,1 km/h (3 Bft) 97,87 %
21.10.2021 01:32 15,3 C 15,0 C 12,3 C 88 % 992,5 hPa 0,0 l/m 0 min 0 min 0 W/m 12,9 km/h (3 Bft) 97,83 %
21.10.2021 01:34 15,3 C 14,4 C 12,3 C 88 % 992,4 hPa 0,0 l/m 0 min 0 min 0 W/m 6,4 km/h (2 Bft) 97,87 %
21.10.2021 01:36 15,3 C 15,0 C 12,3 C 88 % 992,4 hPa 0,0 l/m 0 min 0 min 0 W/m 12,9 km/h (3 Bft) 97,87 %
21.10.2021 01:38 15,3 C 15,0 C 12,3 C 88 % 992,3 hPa 0,0 l/m 0 min 0 min 0 W/m 12,9 km/h (3 Bft) 97,87 %
21.10.2021 01:40 15,4 C 15,0 C 12,3 C 88 % 992,1 hPa 0,0 l/m 0 min 0 min 0 W/m 22,5 km/h (4 Bft) 97,87 %
21.10.2021 01:42 15,4 C 15,0 C 12,3 C 88 % 991,9 hPa 0,0 l/m 0 min 0 min 0 W/m 12,9 km/h (3 Bft) 95,74 %
21.10.2021 01:44 15,4 C 15,0 C 12,3 C 87 % 991,9 hPa 0,0 l/m 0 min 0 min 0 W/m 19,3 km/h (3 Bft) 97,83 %
21.10.2021 01:46 15,4 C 15,0 C 12,3 C 87 % 991,8 hPa 0,0 l/m 0 min 0 min 0 W/m 16,1 km/h (3 Bft) 97,87 %
21.10.2021 01:48 15,4 C 15,0 C 12,3 C 87 % 991,6 hPa 0,0 l/m 0 min 0 min 0 W/m 16,1 km/h (3 Bft) 97,87 %
21.10.2021 01:50 15,4 C 15,0 C 12,3 C 87 % 991,7 hPa 0,0 l/m 0 min 0 min 0 W/m 16,1 km/h (3 Bft) 95,74 %
21.10.2021 01:52 15,4 C 15,0 C 12,3 C 87 % 991,6 hPa 0,0 l/m 0 min 0 min 0 W/m 12,9 km/h (3 Bft) 95,74 %
21.10.2021 01:54 15,5 C 15,0 C 12,3 C 87 % 991,5 hPa 0,0 l/m 0 min 0 min 0 W/m 16,1 km/h (3 Bft) 95,65 %
21.10.2021 01:56 15,5 C 15,0 C 12,3 C 87 % 991,3 hPa 0,0 l/m 0 min 0 min 0 W/m 12,9 km/h (3 Bft) 95,74 %
21.10.2021 01:58 15,5 C 15,0 C 12,3 C 87 % 991,4 hPa 0,0 l/m 0 min 0 min 0 W/m 16,1 km/h (3 Bft) 97,87 %
21.10.2021 02:00 15,5 C 15,0 C 12,3 C 86 % 991,4 hPa 0,0 l/m 0 min 2 min 0 W/m 12,9 km/h (3 Bft) 97,87 %
21.10.2021 02:02 15,5 C 15,0 C 12,3 C 86 % 991,3 hPa 0,2 l/m 0 min 2 min 0 W/m 12,9 km/h (3 Bft) 97,87 %
21.10.2021 02:04 15,5 C 14,4 C 12,3 C 87 % 991,4 hPa 0,0 l/m 0 min 2 min 0 W/m 16,1 km/h (3 Bft) 97,92 %
21.10.2021 02:06 15,5 C 14,4 C 12,3 C 87 % 991,3 hPa 0,2 l/m 0 min 2 min 0 W/m 12,9 km/h (3 Bft) 95,65 %
21.10.2021 02:08 15,5 C 14,4 C 12,3 C 87 % 991,2 hPa 0,0 l/m 0 min 2 min 0 W/m 9,7 km/h (2 Bft) 97,87 %
21.10.2021 02:10 15,5 C 14,4 C 12,3 C 88 % 991,2 hPa 0,0 l/m 0 min 2 min 0 W/m 12,9 km/h (3 Bft) 95,74 %
21.10.2021 02:12 15,5 C 13,9 C 12,3 C 88 % 991,3 hPa 0,4 l/m 0 min 2 min 0 W/m 12,9 km/h (3 Bft) 93,62 %
21.10.2021 02:14 15,4 C 13,9 C 12,3 C 88 % 991,1 hPa 0,0 l/m 0 min 2 min 0 W/m 16,1 km/h (3 Bft) 91,49 %
21.10.2021 02:16 15,3 C 13,9 C 12,3 C 88 % 991,0 hPa 0,2 l/m 0 min 2 min 0 W/m 6,4 km/h (2 Bft) 95,74 %
21.10.2021 02:18 15,3 C 13,9 C 12,3 C 89 % 990,9 hPa 0,0 l/m 0 min 0 min 0 W/m 12,9 km/h (3 Bft) 95,65 %
21.10.2021 02:20 15,3 C 13,9 C 12,3 C 89 % 990,9 hPa 0,0 l/m 0 min 2 min 0 W/m 16,1 km/h (3 Bft) 95,74 %
21.10.2021 02:22 15,2 C 13,9 C 12,3 C 89 % 991,0 hPa 0,0 l/m 0 min 2 min 0 W/m 12,9 km/h (3 Bft) 95,74 %
21.10.2021 02:24 15,1 C 13,9 C 12,3 C 90 % 990,9 hPa 0,0 l/m 0 min 2 min 0 W/m 12,9 km/h (3 Bft) 95,74 %
21.10.2021 02:26 15,1 C 13,9 C 12,3 C 90 % 991,0 hPa 0,0 l/m 0 min 2 min 0 W/m 16,1 km/h (3 Bft) 95,74 %
21.10.2021 02:28 15,0 C 13,9 C 12,3 C 90 % 991,0 hPa 0,4 l/m 0 min 2 min 0 W/m 19,3 km/h (3 Bft) 93,62 %
21.10.2021 02:30 15,0 C 13,3 C 12,3 C 90 % 991,0 hPa 0,6 l/m 0 min 2 min 0 W/m 16,1 km/h (3 Bft) 95,65 %
21.10.2021 02:32 14,9 C 13,3 C 12,3 C 91 % 991,1 hPa 0,2 l/m 0 min 2 min 0 W/m 38,6 km/h (5 Bft) 95,74 %
21.10.2021 02:34 14,9 C 13,3 C 12,3 C 91 % 991,2 hPa 0,4 l/m 0 min 2 min 0 W/m 32,2 km/h (5 Bft) 95,74 %
21.10.2021 02:36 14,8 C 13,3 C 12,3 C 91 % 990,9 hPa 0,2 l/m 0 min 2 min 0 W/m 32,2 km/h (5 Bft) 95,74 %
21.10.2021 02:38 14,8 C 12,8 C 12,3 C 91 % 990,8 hPa 0,0 l/m 0 min 2 min 0 W/m 25,7 km/h (4 Bft) 95,74 %
21.10.2021 02:40 14,8 C 12,8 C 12,3 C 92 % 990,6 hPa 0,0 l/m 0 min 2 min 0 W/m 29,0 km/h (5 Bft) 97,87 %
21.10.2021 02:42 14,7 C 12,8 C 12,3 C 92 % 990,3 hPa 0,2 l/m 0 min 2 min 0 W/m 19,3 km/h (3 Bft) 97,83 %
21.10.2021 02:44 14,7 C 12,8 C 12,3 C 92 % 990,2 hPa 0,0 l/m 0 min 0 min 0 W/m 16,1 km/h (3 Bft) 97,87 %
21.10.2021 02:46 14,6 C 12,8 C 12,3 C 92 % 990,5 hPa 0,0 l/m 0 min 0 min 0 W/m 22,5 km/h (4 Bft) 95,74 %
21.10.2021 02:48 14,6 C 12,8 C 12,3 C 92 % 990,4 hPa 0,0 l/m 0 min 0 min 0 W/m 19,3 km/h (3 Bft) 97,87 %
21.10.2021 02:50 14,5 C 12,8 C 12,3 C 92 % 990,4 hPa 0,0 l/m 0 min 0 min 0 W/m 16,1 km/h (3 Bft) 97,87 %
21.10.2021 02:52 14,5 C 12,8 C 12,3 C 93 % 990,4 hPa 0,0 l/m 0 min 0 min 0 W/m 32,2 km/h (5 Bft) 97,83 %
21.10.2021 02:54 14,5 C 12,8 C 12,3 C 93 % 990,6 hPa 0,0 l/m 0 min 0 min 0 W/m 32,2 km/h (5 Bft) 97,87 %
21.10.2021 02:56 14,5 C 13,3 C 12,3 C 93 % 990,5 hPa 0,0 l/m 0 min 0 min 0 W/m 25,7 km/h (4 Bft) 100,00 %
21.10.2021 02:58 14,5 C 13,3 C 12,3 C 93 % 990,3 hPa 0,0 l/m 0 min 0 min 0 W/m 38,6 km/h (5 Bft) 100,00 %
21.10.2021 03:00 14,5 C 13,3 C 12,3 C 93 % 990,3 hPa 0,0 l/m 0 min 0 min 0 W/m 32,2 km/h (5 Bft) 53,49 %
21.10.2021 03:02 14,5 C 13,3 C 12,3 C 93 % 990,2 hPa 0,0 l/m 0 min 0 min 0 W/m 48,3 km/h (6 Bft) 97,87 %
21.10.2021 03:04 14,5 C 13,3 C 12,3 C 93 % 990,2 hPa 0,0 l/m 0 min 0 min 0 W/m 35,4 km/h (5 Bft) 100,00 %
21.10.2021 03:06 14,5 C 13,3 C 12,3 C 93 % 990,0 hPa 0,0 l/m 0 min 0 min 0 W/m 41,8 km/h (6 Bft) 97,87 %
21.10.2021 03:08 14,5 C 13,9 C 12,3 C 93 % 990,1 hPa 0,0 l/m 0 min 0 min 0 W/m 57,9 km/h (7 Bft) 100,00 %
21.10.2021 03:10 14,5 C 13,9 C 12,3 C 93 % 990,2 hPa 0,0 l/m 0 min 0 min 0 W/m 41,8 km/h (6 Bft) 97,87 %
21.10.2021 03:12 14,5 C 13,3 C 12,3 C 92 % 990,0 hPa 0,0 l/m 0 min 0 min 0 W/m 25,7 km/h (4 Bft) 97,87 %
21.10.2021 03:14 14,5 C 13,3 C 12,3 C 92 % 990,0 hPa 0,0 l/m 0 min 0 min 0 W/m 38,6 km/h (5 Bft) 100,00 %
21.10.2021 03:16 14,4 C 13,9 C 12,3 C 91 % 990,0 hPa 0,0 l/m 0 min 0 min 0 W/m 61,2 km/h (7 Bft) 97,87 %
21.10.2021 03:18 14,4 C 13,3 C 11,7 C 90 % 990,1 hPa 0,0 l/m 0 min 0 min 0 W/m 38,6 km/h (5 Bft) 100,00 %
21.10.2021 03:20 14,4 C 13,9 C 11,7 C 90 % 989,9 hPa 0,0 l/m 0 min 0 min 0 W/m 38,6 km/h (5 Bft) 97,87 %
21.10.2021 03:22 14,4 C 13,3 C 11,7 C 89 % 989,9 hPa 0,0 l/m 0 min 0 min 0 W/m 38,6 km/h (5 Bft) 97,87 %
21.10.2021 03:24 14,3 C 13,3 C 11,7 C 87 % 989,8 hPa 0,0 l/m 0 min 0 min 0 W/m 54,7 km/h (7 Bft) 97,87 %
21.10.2021 03:26 14,3 C 13,3 C 11,1 C 87 % 989,8 hPa 0,0 l/m 0 min 0 min 0 W/m 51,5 km/h (7 Bft) 97,87 %
21.10.2021 03:28 14,2 C 13,3 C 11,1 C 85 % 990,1 hPa 0,0 l/m 0 min 0 min 0 W/m 45,1 km/h (6 Bft) 95,65 %
21.10.2021 03:30 14,3 C 13,3 C 11,1 C 83 % 990,2 hPa 0,0 l/m 0 min 0 min 0 W/m 41,8 km/h (6 Bft) 97,87 %
21.10.2021 03:32 14,2 C 13,3 C 11,1 C 82 % 989,9 hPa 0,0 l/m 0 min 0 min 0 W/m 32,2 km/h (5 Bft) 98,15 %
21.10.2021 03:34 14,2 C 13,3 C 10,6 C 82 % 990,0 hPa 0,0 l/m 0 min 0 min 0 W/m 35,4 km/h (5 Bft) 97,83 %
21.10.2021 03:36 14,2 C 13,3 C 10,6 C 81 % 989,9 hPa 0,0 l/m 0 min 0 min 0 W/m 35,4 km/h (5 Bft) 93,62 %
21.10.2021 03:38 14,2 C 13,3 C 10,6 C 81 % 989,8 hPa 0,0 l/m 0 min 0 min 0 W/m 22,5 km/h (4 Bft) 97,87 %
21.10.2021 03:40 14,2 C 12,8 C 10,6 C 80 % 989,8 hPa 0,0 l/m 0 min 0 min 0 W/m 32,2 km/h (5 Bft) 97,87 %
21.10.2021 03:42 14,1 C 12,8 C 10,6 C 81 % 989,7 hPa 0,0 l/m 0 min 0 min 0 W/m 38,6 km/h (5 Bft) 97,87 %
21.10.2021 03:44 14,1 C 13,3 C 10,6 C 80 % 989,9 hPa 0,0 l/m 0 min 2 min 0 W/m 45,1 km/h (6 Bft) 95,74 %
21.10.2021 03:46 14,1 C 12,8 C 10,6 C 80 % 990,1 hPa 0,2 l/m 0 min 2 min 0 W/m 64,4 km/h (8 Bft) 97,83 %
21.10.2021 03:48 14,0 C 12,8 C 10,6 C 80 % 989,9 hPa 0,0 l/m 0 min 2 min 0 W/m 41,8 km/h (6 Bft) 97,87 %
21.10.2021 03:50 13,9 C 12,8 C 10,6 C 81 % 989,9 hPa 0,0 l/m 0 min 2 min 0 W/m 54,7 km/h (7 Bft) 97,87 %
21.10.2021 03:52 13,7 C 12,2 C 10,6 C 83 % 990,1 hPa 0,0 l/m 0 min 2 min 0 W/m 54,7 km/h (7 Bft) 100,00 %
21.10.2021 03:54 13,5 C 11,7 C 10,6 C 84 % 990,1 hPa 0,2 l/m 0 min 2 min 0 W/m 32,2 km/h (5 Bft) 100,00 %
21.10.2021 03:56 13,3 C 11,1 C 10,6 C 85 % 989,9 hPa 0,0 l/m 0 min 2 min 0 W/m 32,2 km/h (5 Bft) 100,00 %
21.10.2021 03:58 13,2 C 11,1 C 10,6 C 87 % 989,7 hPa 0,0 l/m 0 min 0 min 0 W/m 22,5 km/h (4 Bft) 100,00 %
21.10.2021 04:00 13,1 C 11,7 C 10,6 C 87 % 989,9 hPa 0,0 l/m 0 min 0 min 0 W/m 16,1 km/h (3 Bft) 100,00 %
21.10.2021 04:02 13,0 C 11,7 C 10,6 C 88 % 989,8 hPa 0,0 l/m 0 min 0 min 0 W/m 22,5 km/h (4 Bft) 100,00 %
21.10.2021 04:04 12,9 C 11,7 C 10,6 C 88 % 989,7 hPa 0,0 l/m 0 min 0 min 0 W/m 16,1 km/h (3 Bft) 100,00 %
21.10.2021 04:06 12,9 C 11,7 C 10,6 C 89 % 989,8 hPa 0,0 l/m 0 min 0 min 0 W/m 45,1 km/h (6 Bft) 97,87 %
21.10.2021 04:08 12,8 C 11,7 C 10,6 C 89 % 989,5 hPa 0,0 l/m 0 min 0 min 0 W/m 45,1 km/h (6 Bft) 100,00 %
21.10.2021 04:10 12,9 C 12,2 C 10,6 C 88 % 989,8 hPa 0,0 l/m 0 min 0 min 0 W/m 41,8 km/h (6 Bft) 100,00 %
21.10.2021 04:12 12,9 C 12,2 C 10,0 C 88 % 989,6 hPa 0,0 l/m 0 min 0 min 0 W/m 74,0 km/h (8 Bft) 100,00 %
21.10.2021 04:14 12,9 C 12,2 C 10,0 C 87 % 989,6 hPa 0,0 l/m 0 min 0 min 0 W/m 38,6 km/h (5 Bft) 100,00 %
21.10.2021 04:16 12,9 C 12,2 C 10,0 C 86 % 989,7 hPa 0,0 l/m 0 min 0 min 0 W/m 38,6 km/h (5 Bft) 100,00 %
21.10.2021 04:18 12,9 C 12,2 C 10,0 C 86 % 989,7 hPa 0,0 l/m 0 min 0 min 0 W/m 35,4 km/h (5 Bft) 97,87 %
21.10.2021 04:20 12,9 C 12,2 C 10,0 C 85 % 989,6 hPa 0,0 l/m 0 min 0 min 0 W/m 38,6 km/h (5 Bft) 100,00 %
21.10.2021 04:22 12,9 C 11,7 C 10,0 C 84 % 989,6 hPa 0,0 l/m 0 min 0 min 0 W/m 51,5 km/h (7 Bft) 97,87 %
21.10.2021 04:24 12,8 C 11,7 C 10,0 C 84 % 989,5 hPa 0,0 l/m 0 min 0 min 0 W/m 29,0 km/h (5 Bft) 100,00 %
21.10.2021 04:26 12,8 C 11,7 C 9,5 C 83 % 989,4 hPa 0,0 l/m 0 min 0 min 0 W/m 54,7 km/h (7 Bft) 97,87 %
21.10.2021 04:28 12,8 C 11,7 C 9,5 C 83 % 989,6 hPa 0,0 l/m 0 min 0 min 0 W/m 35,4 km/h (5 Bft) 97,87 %
21.10.2021 04:30 12,8 C 11,7 C 9,5 C 82 % 989,5 hPa 0,0 l/m 0 min 0 min 0 W/m 41,8 km/h (6 Bft) 97,87 %
21.10.2021 04:32 12,9 C 12,2 C 9,5 C 81 % 989,5 hPa 0,0 l/m 0 min 0 min 0 W/m 48,3 km/h (6 Bft) 97,87 %
21.10.2021 04:34 12,9 C 11,7 C 9,5 C 82 % 989,4 hPa 0,0 l/m 0 min 0 min 0 W/m 29,0 km/h (5 Bft) 97,87 %
21.10.2021 04:36 12,8 C 11,7 C 9,5 C 82 % 989,5 hPa 0,0 l/m 0 min 0 min 0 W/m 48,3 km/h (6 Bft) 97,83 %
21.10.2021 04:38 12,8 C 11,7 C 9,5 C 82 % 989,4 hPa 0,0 l/m 0 min 0 min 0 W/m 45,1 km/h (6 Bft) 97,87 %
21.10.2021 04:40 12,8 C 11,7 C 9,5 C 82 % 989,4 hPa 0,0 l/m 0 min 0 min 0 W/m 38,6 km/h (5 Bft) 97,87 %
21.10.2021 04:42 12,7 C 11,7 C 9,5 C 81 % 989,5 hPa 0,0 l/m 0 min 0 min 0 W/m 25,7 km/h (4 Bft) 95,74 %
21.10.2021 04:44 12,8 C 11,7 C 9,5 C 82 % 989,4 hPa 0,0 l/m 0 min 0 min 0 W/m 32,2 km/h (5 Bft) 97,87 %
21.10.2021 04:46 12,8 C 11,7 C 9,5 C 81 % 989,5 hPa 0,0 l/m 0 min 0 min 0 W/m 57,9 km/h (7 Bft) 97,87 %
21.10.2021 04:48 12,8 C 12,2 C 9,5 C 81 % 989,6 hPa 0,0 l/m 0 min 0 min 0 W/m 38,6 km/h (5 Bft) 97,83 %
21.10.2021 04:50 12,9 C 12,2 C 9,5 C 81 % 989,4 hPa 0,0 l/m 0 min 0 min 0 W/m 35,4 km/h (5 Bft) 97,87 %
21.10.2021 04:52 12,9 C 12,2 C 9,5 C 81 % 989,4 hPa 0,0 l/m 0 min 0 min 0 W/m 38,6 km/h (5 Bft) 95,74 %
21.10.2021 04:54 12,9 C 12,2 C 9,5 C 81 % 989,3 hPa 0,0 l/m 0 min 0 min 0 W/m 29,0 km/h (5 Bft) 95,74 %
21.10.2021 04:56 12,9 C 11,7 C 9,5 C 81 % 989,5 hPa 0,0 l/m 0 min 0 min 0 W/m 35,4 km/h (5 Bft) 97,87 %
21.10.2021 04:58 12,9 C 12,2 C 9,5 C 81 % 989,3 hPa 0,0 l/m 0 min 0 min 0 W/m 54,7 km/h (7 Bft) 95,74 %
21.10.2021 05:00 12,9 C 12,2 C 9,5 C 81 % 989,2 hPa 0,0 l/m 0 min 0 min 0 W/m 48,3 km/h (6 Bft) 97,87 %
21.10.2021 05:02 13,0 C 12,2 C 9,5 C 81 % 989,2 hPa 0,0 l/m 0 min 0 min 0 W/m 41,8 km/h (6 Bft) 97,92 %
21.10.2021 05:04 13,0 C 12,2 C 9,5 C 81 % 989,4 hPa 0,0 l/m 0 min 0 min 0 W/m 38,6 km/h (5 Bft) 97,62 %
21.10.2021 05:06 13,0 C 12,2 C 9,5 C 81 % 989,3 hPa 0,0 l/m 0 min 0 min 0 W/m 32,2 km/h (5 Bft) 97,87 %
21.10.2021 05:08 13,0 C 12,2 C 9,5 C 81 % 989,5 hPa 0,0 l/m 0 min 0 min 0 W/m 45,1 km/h (6 Bft) 97,87 %
21.10.2021 05:10 13,0 C 12,2 C 9,5 C 81 % 989,3 hPa 0,0 l/m 0 min 2 min 0 W/m 70,8 km/h (8 Bft) 100,00 %
21.10.2021 05:12 13,0 C 12,2 C 9,5 C 82 % 989,3 hPa 0,0 l/m 0 min 2 min 0 W/m 45,1 km/h (6 Bft) 97,83 %
21.10.2021 05:14 12,9 C 12,2 C 9,5 C 82 % 989,4 hPa 0,0 l/m 0 min 2 min 0 W/m 48,3 km/h (6 Bft) 97,87 %
21.10.2021 05:16 12,9 C 11,7 C 9,5 C 83 % 989,4 hPa 0,0 l/m 0 min 0 min 0 W/m 45,1 km/h (6 Bft) 93,62 %
21.10.2021 05:18 12,9 C 12,2 C 9,5 C 83 % 989,5 hPa 0,0 l/m 0 min 0 min 0 W/m 57,9 km/h (7 Bft) 95,74 %
21.10.2021 05:20 12,9 C 12,2 C 9,5 C 83 % 989,3 hPa 0,0 l/m 0 min 0 min 0 W/m 38,6 km/h (5 Bft) 93,62 %
21.10.2021 05:22 12,8 C 11,7 C 9,5 C 83 % 989,2 hPa 0,0 l/m 0 min 0 min 0 W/m 35,4 km/h (5 Bft) 95,65 %
21.10.2021 05:24 12,8 C 11,7 C 10,0 C 83 % 989,1 hPa 0,0 l/m 0 min 0 min 0 W/m 38,6 km/h (5 Bft) 95,74 %
21.10.2021 05:26 12,8 C 11,7 C 10,0 C 83 % 989,1 hPa 0,0 l/m 0 min 0 min 0 W/m 35,4 km/h (5 Bft) 93,62 %
21.10.2021 05:28 12,7 C 11,7 C 10,6 C 82 % 989,1 hPa 0,0 l/m 0 min 0 min 0 W/m 48,3 km/h (6 Bft) 97,87 %
21.10.2021 05:30 12,7 C 11,7 C 10,6 C 82 % 989,0 hPa 0,0 l/m 0 min 0 min 0 W/m 32,2 km/h (5 Bft) 95,74 %
21.10.2021 05:32 12,7 C 11,7 C 10,6 C 82 % 989,1 hPa 0,0 l/m 0 min 0 min 0 W/m 38,6 km/h (5 Bft) 95,74 %
21.10.2021 05:34 12,7 C 12,2 C 10,6 C 82 % 989,3 hPa 0,0 l/m 0 min 0 min 0 W/m 70,8 km/h (8 Bft) 95,65 %
21.10.2021 05:36 12,8 C 12,2 C 10,6 C 82 % 989,0 hPa 0,0 l/m 0 min 0 min 0 W/m 41,8 km/h (6 Bft) 95,74 %
21.10.2021 05:38 12,8 C 12,2 C 10,6 C 82 % 989,0 hPa 0,0 l/m 0 min 0 min 0 W/m 54,7 km/h (7 Bft) 93,62 %
21.10.2021 05:40 12,8 C 12,2 C 10,6 C 82 % 989,1 hPa 0,0 l/m 0 min 0 min 0 W/m 32,2 km/h (5 Bft) 95,74 %
21.10.2021 05:42 12,8 C 12,2 C 10,6 C 81 % 989,1 hPa 0,0 l/m 0 min 0 min 0 W/m 48,3 km/h (6 Bft) 95,74 %
21.10.2021 05:44 12,9 C 12,2 C 10,6 C 81 % 988,9 hPa 0,0 l/m 0 min 0 min 0 W/m 80,5 km/h (9 Bft) 97,87 %
21.10.2021 05:46 12,9 C 12,2 C 10,6 C 81 % 989,0 hPa 0,0 l/m 0 min 0 min 0 W/m 29,0 km/h (5 Bft) 97,83 %
21.10.2021 05:48 12,9 C 12,2 C 10,6 C 80 % 989,2 hPa 0,0 l/m 0 min 0 min 0 W/m 41,8 km/h (6 Bft) 97,87 %
21.10.2021 05:50 13,0 C 12,2 C 10,6 C 80 % 989,4 hPa 0,0 l/m 0 min 0 min 0 W/m 54,7 km/h (7 Bft) 97,87 %
21.10.2021 05:52 13,0 C 12,2 C 10,6 C 80 % 989,2 hPa 0,0 l/m 0 min 0 min 0 W/m 32,2 km/h (5 Bft) 97,87 %
21.10.2021 05:54 13,0 C 12,2 C 10,6 C 80 % 988,8 hPa 0,0 l/m 0 min 0 min 0 W/m 41,8 km/h (6 Bft) 95,74 %
21.10.2021 05:56 13,0 C 12,2 C 10,6 C 80 % 988,8 hPa 0,0 l/m 0 min 0 min 0 W/m 51,5 km/h (7 Bft) 97,87 %
21.10.2021 05:58 13,0 C 12,2 C 11,1 C 79 % 988,8 hPa 0,0 l/m 0 min 0 min 0 W/m 67,6 km/h (8 Bft) 97,96 %
21.10.2021 06:00 13,1 C 12,2 C 10,6 C 79 % 988,7 hPa 0,0 l/m 0 min 0 min 0 W/m 35,4 km/h (5 Bft) 97,87 %
21.10.2021 06:02 13,1 C 12,2 C 11,1 C 79 % 989,0 hPa 0,0 l/m 0 min 0 min 0 W/m 57,9 km/h (7 Bft) 98,00 %
21.10.2021 06:04 13,1 C 12,2 C 11,1 C 79 % 988,7 hPa 0,0 l/m 0 min 0 min 0 W/m 48,3 km/h (6 Bft) 97,87 %
21.10.2021 06:06 13,1 C 12,2 C 11,1 C 79 % 988,7 hPa 0,0 l/m 0 min 0 min 0 W/m 35,4 km/h (5 Bft) 100,00 %
21.10.2021 06:08 13,1 C 12,2 C 10,6 C 79 % 988,7 hPa 0,0 l/m 0 min 0 min 0 W/m 22,5 km/h (4 Bft) 100,00 %
21.10.2021 06:10 13,1 C 12,2 C 11,1 C 79 % 988,7 hPa 0,0 l/m 0 min 0 min 0 W/m 54,7 km/h (7 Bft) 97,87 %
21.10.2021 06:12 13,1 C 12,2 C 11,1 C 79 % 988,7 hPa 0,0 l/m 0 min 0 min 0 W/m 35,4 km/h (5 Bft) 100,00 %
21.10.2021 06:14 13,1 C 12,2 C 11,1 C 80 % 988,8 hPa 0,0 l/m 0 min 0 min 0 W/m 35,4 km/h (5 Bft) 97,87 %
21.10.2021 06:16 13,0 C 12,2 C 11,1 C 79 % 988,7 hPa 0,0 l/m 0 min 0 min 0 W/m 54,7 km/h (7 Bft) 100,00 %
21.10.2021 06:18 13,1 C 12,2 C 11,1 C 80 % 988,8 hPa 0,0 l/m 0 min 0 min 0 W/m 35,4 km/h (5 Bft) 97,87 %
21.10.2021 06:20 13,0 C 12,2 C 11,1 C 80 % 988,7 hPa 0,0 l/m 0 min 0 min 0 W/m 38,6 km/h (5 Bft) 100,00 %
21.10.2021 06:22 13,0 C 12,2 C 11,1 C 80 % 988,7 hPa 0,0 l/m 0 min 0 min 0 W/m 41,8 km/h (6 Bft) 97,83 %
21.10.2021 06:24 13,0 C 12,2 C 11,1 C 80 % 988,5 hPa 0,0 l/m 0 min 0 min 0 W/m 57,9 km/h (7 Bft) 100,00 %
21.10.2021 06:26 13,0 C 12,2 C 11,1 C 81 % 988,7 hPa 0,0 l/m 0 min 0 min 0 W/m 48,3 km/h (6 Bft) 100,00 %
21.10.2021 06:28 13,0 C 12,2 C 11,1 C 80 % 988,6 hPa 0,0 l/m 0 min 0 min 0 W/m 48,3 km/h (6 Bft) 100,00 %
21.10.2021 06:30 13,0 C 12,2 C 11,1 C 81 % 988,8 hPa 0,0 l/m 0 min 0 min 0 W/m 32,2 km/h (5 Bft) 100,00 %
21.10.2021 06:32 13,0 C 12,2 C 11,1 C 81 % 988,6 hPa 0,0 l/m 0 min 0 min 0 W/m 61,2 km/h (7 Bft) 100,00 %
21.10.2021 06:34 12,9 C 12,2 C 11,1 C 81 % 988,8 hPa 0,0 l/m 0 min 0 min 0 W/m 41,8 km/h (6 Bft) 100,00 %
21.10.2021 06:36 12,9 C 12,2 C 11,1 C 81 % 988,9 hPa 0,0 l/m 0 min 0 min 0 W/m 57,9 km/h (7 Bft) 100,00 %
21.10.2021 06:38 12,9 C 12,2 C 11,1 C 81 % 988,7 hPa 0,0 l/m 0 min 2 min 0 W/m 61,2 km/h (7 Bft) 100,00 %
21.10.2021 06:40 12,9 C 12,2 C 11,1 C 81 % 988,6 hPa 0,0 l/m 0 min 2 min 0 W/m 57,9 km/h (7 Bft) 100,00 %
21.10.2021 06:42 12,9 C 12,2 C 11,1 C 82 % 988,7 hPa 0,0 l/m 0 min 2 min 0 W/m 48,3 km/h (6 Bft) 100,00 %
21.10.2021 06:44 12,9 C 12,2 C 11,1 C 82 % 989,1 hPa 0,0 l/m 0 min 2 min 0 W/m 57,9 km/h (7 Bft) 93,48 %
21.10.2021 06:46 12,8 C 12,2 C 10,6 C 82 % 988,7 hPa 0,0 l/m 0 min 2 min 0 W/m 67,6 km/h (8 Bft) 100,00 %
21.10.2021 06:48 12,8 C 12,2 C 10,6 C 82 % 988,9 hPa 0,0 l/m 0 min 2 min 0 W/m 48,3 km/h (6 Bft) 100,00 %
21.10.2021 06:50 12,8 C 12,2 C 10,6 C 83 % 988,8 hPa 0,0 l/m 0 min 2 min 0 W/m 51,5 km/h (7 Bft) 100,00 %
21.10.2021 06:52 12,7 C 12,2 C 10,6 C 83 % 988,7 hPa 0,0 l/m 0 min 2 min 0 W/m 61,2 km/h (7 Bft) 100,00 %
21.10.2021 06:54 12,6 C 11,7 C 10,6 C 83 % 988,7 hPa 0,0 l/m 0 min 0 min 0 W/m 41,8 km/h (6 Bft) 97,87 %
21.10.2021 06:56 12,5 C 11,7 C 10,6 C 83 % 988,7 hPa 0,0 l/m 0 min 0 min 0 W/m 38,6 km/h (5 Bft) 100,00 %
21.10.2021 06:58 12,5 C 11,7 C 10,6 C 84 % 988,8 hPa 0,0 l/m 0 min 0 min 0 W/m 48,3 km/h (6 Bft) 100,00 %
21.10.2021 07:00 12,5 C 11,7 C 10,6 C 84 % 988,8 hPa 0,0 l/m 0 min 0 min 0 W/m 74,0 km/h (8 Bft) 100,00 %
21.10.2021 07:02 12,4 C 11,7 C 10,6 C 84 % 988,7 hPa 0,0 l/m 0 min 0 min 0 W/m 64,4 km/h (8 Bft) 97,87 %
21.10.2021 07:04 12,4 C 11,7 C 10,6 C 85 % 988,7 hPa 0,0 l/m 0 min 0 min 0 W/m 41,8 km/h (6 Bft) 97,92 %
21.10.2021 07:06 12,4 C 11,7 C 10,6 C 85 % 988,7 hPa 0,0 l/m 0 min 0 min 0 W/m 48,3 km/h (6 Bft) 95,74 %
21.10.2021 07:08 12,4 C 11,7 C 10,6 C 85 % 988,8 hPa 0,0 l/m 0 min 0 min 0 W/m 51,5 km/h (7 Bft) 97,83 %
21.10.2021 07:10 12,3 C 11,7 C 10,6 C 85 % 988,9 hPa 0,0 l/m 0 min 0 min 0 W/m 67,6 km/h (8 Bft) 95,74 %
21.10.2021 07:12 12,3 C 11,7 C 10,6 C 86 % 988,8 hPa 0,0 l/m 0 min 0 min 0 W/m 45,1 km/h (6 Bft) 91,49 %
21.10.2021 07:14 12,1 C 11,7 C 10,6 C 86 % 988,7 hPa 0,0 l/m 0 min 0 min 0 W/m 57,9 km/h (7 Bft) 95,74 %
21.10.2021 07:16 12,1 C 11,1 C 10,0 C 86 % 988,8 hPa 0,0 l/m 0 min 2 min 0 W/m 35,4 km/h (5 Bft) 95,74 %
21.10.2021 07:18 12,0 C 11,1 C 10,0 C 87 % 988,6 hPa 0,0 l/m 0 min 2 min 0 W/m 41,8 km/h (6 Bft) 95,74 %
21.10.2021 07:20 12,0 C 11,1 C 10,0 C 88 % 988,7 hPa 0,0 l/m 0 min 2 min 0 W/m 51,5 km/h (7 Bft) 95,65 %
21.10.2021 07:22 11,9 C 11,1 C 10,0 C 88 % 988,7 hPa 0,0 l/m 0 min 2 min 0 W/m 38,6 km/h (5 Bft) 95,74 %
21.10.2021 07:24 11,9 C 11,1 C 10,0 C 88 % 988,7 hPa 0,0 l/m 0 min 2 min 0 W/m 61,2 km/h (7 Bft) 95,74 %
21.10.2021 07:26 11,8 C 11,1 C 10,0 C 88 % 988,5 hPa 0,0 l/m 0 min 2 min 0 W/m 57,9 km/h (7 Bft) 95,74 %
21.10.2021 07:28 11,8 C 11,1 C 10,0 C 88 % 988,4 hPa 0,0 l/m 0 min 2 min 0 W/m 41,8 km/h (6 Bft) 95,74 %
21.10.2021 07:30 11,8 C 11,1 C 10,0 C 89 % 988,5 hPa 0,0 l/m 0 min 2 min 0 W/m 45,1 km/h (6 Bft) 95,74 %
21.10.2021 07:32 11,7 C 11,1 C 10,0 C 89 % 988,6 hPa 0,0 l/m 0 min 2 min 0 W/m 74,0 km/h (8 Bft) 95,65 %
21.10.2021 07:34 11,8 C 11,1 C 10,0 C 89 % 988,6 hPa 0,0 l/m 0 min 2 min 0 W/m 45,1 km/h (6 Bft) 97,87 %
21.10.2021 07:36 11,8 C 11,1 C 10,0 C 88 % 988,6 hPa 0,0 l/m 0 min 2 min 0 W/m 57,9 km/h (7 Bft) 95,74 %
21.10.2021 07:38 11,8 C 11,1 C 10,0 C 89 % 988,6 hPa 0,0 l/m 0 min 2 min 0 W/m 64,4 km/h (8 Bft) 95,74 %
21.10.2021 07:40 11,8 C 11,1 C 10,0 C 88 % 988,5 hPa 0,0 l/m 0 min 2 min 0 W/m 48,3 km/h (6 Bft) 95,74 %
21.10.2021 07:42 11,7 C 11,1 C 10,0 C 88 % 988,6 hPa 0,0 l/m 0 min 2 min 0 W/m 57,9 km/h (7 Bft) 93,62 %
21.10.2021 07:44 11,6 C 10,6 C 9,5 C 88 % 988,6 hPa 0,0 l/m 0 min 2 min 0 W/m 48,3 km/h (6 Bft) 95,65 %
21.10.2021 07:46 11,5 C 10,6 C 9,5 C 89 % 988,6 hPa 0,0 l/m 0 min 2 min 0 W/m 54,7 km/h (7 Bft) 97,87 %
21.10.2021 07:48 11,5 C 10,6 C 9,5 C 89 % 988,8 hPa 0,0 l/m 0 min 2 min 0 W/m 64,4 km/h (8 Bft) 97,87 %
21.10.2021 07:50 11,4 C 10,6 C 9,5 C 89 % 988,8 hPa 0,0 l/m 0 min 2 min 0 W/m 57,9 km/h (7 Bft) 100,00 %
21.10.2021 07:52 11,3 C 10,6 C 8,9 C 90 % 988,9 hPa 0,0 l/m 0 min 2 min 0 W/m 41,8 km/h (6 Bft) 100,00 %
21.10.2021 07:54 11,2 C 10,6 C 8,9 C 90 % 989,0 hPa 0,0 l/m 0 min 2 min 0 W/m 38,6 km/h (5 Bft) 100,00 %
21.10.2021 07:56 11,1 C 10,6 C 8,9 C 90 % 989,0 hPa 0,0 l/m 0 min 2 min 0 W/m 32,2 km/h (5 Bft) 100,00 %
21.10.2021 07:58 11,1 C 10,6 C 8,9 C 91 % 989,1 hPa 0,0 l/m 0 min 2 min 0 W/m 32,2 km/h (5 Bft) 100,00 %
21.10.2021 08:00 11,0 C 10,6 C 8,9 C 91 % 989,3 hPa 0,0 l/m 0 min 2 min 0 W/m 29,0 km/h (5 Bft) 100,00 %
21.10.2021 08:02 11,0 C 10,6 C 8,9 C 91 % 989,4 hPa 0,0 l/m 0 min 2 min 0 W/m 45,1 km/h (6 Bft) 100,00 %
21.10.2021 08:04 11,0 C 10,0 C 8,9 C 91 % 989,5 hPa 0,2 l/m 0 min 2 min 0 W/m 29,0 km/h (5 Bft) 100,00 %
21.10.2021 08:06 11,0 C 10,0 C 8,9 C 91 % 989,7 hPa 0,0 l/m 0 min 2 min 0 W/m 35,4 km/h (5 Bft) 97,83 %
21.10.2021 08:08 10,9 C 9,4 C 8,9 C 91 % 990,0 hPa 0,0 l/m 0 min 2 min 0 W/m 29,0 km/h (5 Bft) 100,00 %
21.10.2021 08:10 10,9 C 9,4 C 8,9 C 91 % 990,1 hPa 0,0 l/m 0 min 2 min 0 W/m 29,0 km/h (5 Bft) 97,87 %
21.10.2021 08:12 10,9 C 9,4 C 8,9 C 91 % 990,4 hPa 0,2 l/m 0 min 2 min 0 W/m 38,6 km/h (5 Bft) 97,83 %
21.10.2021 08:14 10,8 C 9,4 C 8,9 C 92 % 990,6 hPa 0,0 l/m 0 min 2 min 0 W/m 48,3 km/h (6 Bft) 97,87 %
21.10.2021 08:16 10,8 C 9,4 C 8,4 C 92 % 990,8 hPa 0,0 l/m 0 min 2 min 0 W/m 48,3 km/h (6 Bft) 97,87 %
21.10.2021 08:18 10,7 C 9,4 C 8,4 C 92 % 991,0 hPa 0,0 l/m 0 min 2 min 0 W/m 54,7 km/h (7 Bft) 93,62 %
21.10.2021 08:20 10,6 C 9,4 C 8,4 C 92 % 991,6 hPa 0,2 l/m 0 min 2 min 0 W/m 45,1 km/h (6 Bft) 97,87 %
21.10.2021 08:22 10,6 C 9,4 C 8,4 C 92 % 991,7 hPa 0,0 l/m 0 min 2 min 0 W/m 45,1 km/h (6 Bft) 97,83 %
21.10.2021 08:24 10,5 C 9,4 C 8,4 C 92 % 991,9 hPa 0,0 l/m 0 min 2 min 2 W/m 38,6 km/h (5 Bft) 95,74 %
21.10.2021 08:26 10,5 C 9,4 C 8,4 C 92 % 992,4 hPa 0,2 l/m 0 min 2 min 0 W/m 38,6 km/h (5 Bft) 97,87 %
21.10.2021 08:28 10,4 C 8,9 C 8,4 C 93 % 992,7 hPa 0,2 l/m 0 min 2 min 0 W/m 57,9 km/h (7 Bft) 95,74 %
21.10.2021 08:30 10,3 C 8,9 C 8,4 C 93 % 992,7 hPa 0,0 l/m 0 min 2 min 0 W/m 48,3 km/h (6 Bft) 97,87 %
21.10.2021 08:32 10,2 C 8,9 C 8,4 C 93 % 993,0 hPa 0,2 l/m 0 min 2 min 0 W/m 48,3 km/h (6 Bft) 97,87 %
21.10.2021 08:34 10,1 C 8,9 C 8,4 C 93 % 993,1 hPa 0,2 l/m 0 min 2 min 0 W/m 51,5 km/h (7 Bft) 95,65 %
21.10.2021 08:36 10,1 C 8,9 C 8,4 C 93 % 993,5 hPa 0,0 l/m 0 min 2 min 2 W/m 51,5 km/h (7 Bft) 97,87 %
21.10.2021 08:38 10,1 C 9,4 C 8,4 C 93 % 993,5 hPa 0,0 l/m 0 min 2 min 5 W/m 51,5 km/h (7 Bft) 98,00 %
21.10.2021 08:40 10,1 C 9,4 C 8,4 C 93 % 994,1 hPa 0,0 l/m 0 min 2 min 5 W/m 45,1 km/h (6 Bft) 97,30 %
21.10.2021 08:42 10,1 C 9,4 C 8,4 C 93 % 994,2 hPa 0,2 l/m 0 min 2 min 5 W/m 61,2 km/h (7 Bft) 97,87 %
21.10.2021 08:44 10,1 C 9,4 C 8,4 C 93 % 994,6 hPa 0,0 l/m 0 min 2 min 5 W/m 48,3 km/h (6 Bft) 95,74 %
21.10.2021 08:46 10,1 C 9,4 C 8,4 C 93 % 994,9 hPa 0,0 l/m 0 min 2 min 7 W/m 51,5 km/h (7 Bft) 97,87 %
21.10.2021 08:48 10,0 C 9,4 C 8,4 C 93 % 995,1 hPa 0,0 l/m 0 min 2 min 8 W/m 41,8 km/h (6 Bft) 95,74 %
21.10.2021 08:50 10,0 C 9,4 C 8,4 C 94 % 995,3 hPa 0,2 l/m 0 min 2 min 9 W/m 29,0 km/h (5 Bft) 97,87 %
21.10.2021 08:52 10,0 C 9,4 C 8,4 C 94 % 995,7 hPa 0,0 l/m 0 min 2 min 9 W/m 41,8 km/h (6 Bft) 97,83 %
21.10.2021 08:54 10,0 C 9,4 C 8,4 C 94 % 995,7 hPa 0,0 l/m 0 min 2 min 12 W/m 48,3 km/h (6 Bft) 97,87 %
21.10.2021 08:56 10,0 C 9,4 C 8,4 C 94 % 995,8 hPa 0,2 l/m 0 min 2 min 12 W/m 41,8 km/h (6 Bft) 93,62 %
21.10.2021 08:58 10,0 C 9,4 C 8,4 C 94 % 996,0 hPa 0,0 l/m 0 min 2 min 15 W/m 29,0 km/h (5 Bft) 97,87 %
21.10.2021 09:00 10,0 C 9,4 C 8,4 C 94 % 996,4 hPa 0,0 l/m 0 min 2 min 14 W/m 35,4 km/h (5 Bft) 100,00 %
21.10.2021 09:02 10,0 C 9,4 C 8,4 C 94 % 996,4 hPa 0,0 l/m 0 min 2 min 16 W/m 35,4 km/h (5 Bft) 100,00 %
21.10.2021 09:04 10,0 C 9,4 C 8,4 C 94 % 996,6 hPa 0,0 l/m 0 min 2 min 10 W/m 25,7 km/h (4 Bft) 100,00 %
21.10.2021 09:06 10,0 C 8,9 C 8,4 C 94 % 996,7 hPa 0,2 l/m 0 min 2 min 8 W/m 29,0 km/h (5 Bft) 97,87 %
21.10.2021 09:08 9,9 C 8,9 C 8,4 C 93 % 996,9 hPa 0,0 l/m 0 min 2 min 12 W/m 32,2 km/h (5 Bft) 97,87 %
21.10.2021 09:10 9,9 C 8,9 C 8,4 C 93 % 997,0 hPa 0,2 l/m 0 min 2 min 12 W/m 25,7 km/h (4 Bft) 95,65 %
21.10.2021 09:12 9,8 C 8,9 C 8,4 C 94 % 997,2 hPa 0,0 l/m 0 min 2 min 22 W/m 29,0 km/h (5 Bft) 97,87 %
21.10.2021 09:14 9,8 C 8,9 C 8,4 C 94 % 997,3 hPa 0,0 l/m 0 min 0 min 28 W/m 29,0 km/h (5 Bft) 95,74 %
21.10.2021 09:16 9,8 C 8,9 C 8,4 C 94 % 997,5 hPa 0,0 l/m 0 min 2 min 32 W/m 22,5 km/h (4 Bft) 97,87 %
21.10.2021 09:18 9,8 C 8,9 C 8,4 C 94 % 997,6 hPa 0,0 l/m 0 min 0 min 35 W/m 29,0 km/h (5 Bft) 93,62 %
21.10.2021 09:20 9,7 C 8,9 C 8,4 C 94 % 997,7 hPa 0,0 l/m 0 min 0 min 40 W/m 25,7 km/h (4 Bft) 97,87 %
21.10.2021 09:22 9,7 C 8,9 C 8,4 C 94 % 997,8 hPa 0,0 l/m 0 min 0 min 40 W/m 22,5 km/h (4 Bft) 97,87 %
21.10.2021 09:24 9,7 C 8,9 C 8,4 C 94 % 997,9 hPa 0,0 l/m 0 min 0 min 33 W/m 35,4 km/h (5 Bft) 97,87 %
21.10.2021 09:26 9,7 C 8,9 C 8,4 C 94 % 998,1 hPa 0,0 l/m 0 min 0 min 29 W/m 22,5 km/h (4 Bft) 95,74 %
21.10.2021 09:28 9,6 C 8,9 C 8,4 C 94 % 998,1 hPa 0,0 l/m 0 min 0 min 30 W/m 22,5 km/h (4 Bft) 97,83 %
21.10.2021 09:30 9,6 C 8,9 C 8,4 C 93 % 998,3 hPa 0,0 l/m 0 min 0 min 33 W/m 19,3 km/h (3 Bft) 95,74 %
21.10.2021 09:32 9,6 C 8,9 C 8,4 C 93 % 998,4 hPa 0,0 l/m 0 min 0 min 40 W/m 25,7 km/h (4 Bft) 95,74 %
21.10.2021 09:34 9,6 C 9,4 C 8,4 C 93 % 998,5 hPa 0,0 l/m 0 min 2 min 42 W/m 29,0 km/h (5 Bft) 97,87 %
21.10.2021 09:36 9,7 C 9,4 C 8,4 C 93 % 998,9 hPa 0,0 l/m 0 min 0 min 45 W/m 29,0 km/h (5 Bft) 100,00 %
21.10.2021 09:38 9,7 C 9,4 C 7,8 C 92 % 998,8 hPa 0,0 l/m 0 min 0 min 41 W/m 29,0 km/h (5 Bft) 100,00 %
21.10.2021 09:40 9,8 C 9,4 C 7,8 C 92 % 999,0 hPa 0,0 l/m 0 min 2 min 28 W/m 35,4 km/h (5 Bft) 97,87 %
21.10.2021 09:42 9,8 C 9,4 C 7,8 C 91 % 999,2 hPa 0,2 l/m 0 min 2 min 19 W/m 29,0 km/h (5 Bft) 97,87 %
21.10.2021 09:44 9,8 C 9,4 C 7,8 C 91 % 999,3 hPa 0,0 l/m 0 min 2 min 24 W/m 25,7 km/h (4 Bft) 97,87 %
21.10.2021 09:46 9,8 C 9,4 C 8,4 C 91 % 999,4 hPa 0,0 l/m 0 min 2 min 35 W/m 22,5 km/h (4 Bft) 97,87 %
21.10.2021 09:48 9,8 C 9,4 C 8,4 C 91 % 999,5 hPa 0,0 l/m 0 min 2 min 47 W/m 22,5 km/h (4 Bft) 97,87 %
21.10.2021 09:50 9,9 C 9,4 C 8,4 C 91 % 999,7 hPa 0,0 l/m 0 min 0 min 51 W/m 38,6 km/h (5 Bft) 97,83 %
21.10.2021 09:52 9,8 C 9,4 C 8,4 C 91 % 999,8 hPa 0,0 l/m 0 min 0 min 54 W/m 29,0 km/h (5 Bft) 97,87 %
21.10.2021 09:54 9,8 C 9,4 C 8,4 C 91 % 1000,0 hPa 0,0 l/m 0 min 0 min 60 W/m 25,7 km/h (4 Bft) 95,74 %
21.10.2021 09:56 9,8 C 9,4 C 8,4 C 90 % 1000,0 hPa 0,0 l/m 0 min 0 min 63 W/m 16,1 km/h (3 Bft) 97,87 %
21.10.2021 09:58 9,8 C 9,4 C 8,4 C 90 % 1000,1 hPa 0,0 l/m 0 min 2 min 62 W/m 19,3 km/h (3 Bft) 95,74 %
21.10.2021 10:00 9,8 C 9,4 C 8,4 C 90 % 1000,2 hPa 0,0 l/m 0 min 0 min 65 W/m 19,3 km/h (3 Bft) 97,87 %
21.10.2021 10:02 9,8 C 9,4 C 8,4 C 91 % 1000,3 hPa 0,0 l/m 0 min 0 min 69 W/m 29,0 km/h (5 Bft) 97,83 %
21.10.2021 10:04 9,8 C 9,4 C 8,4 C 91 % 1000,3 hPa 0,0 l/m 0 min 2 min 79 W/m 29,0 km/h (5 Bft) 97,87 %
21.10.2021 10:06 9,8 C 9,4 C 8,4 C 91 % 1000,4 hPa 0,0 l/m 0 min 2 min 87 W/m 19,3 km/h (3 Bft) 97,87 %
21.10.2021 10:08 9,9 C 9,4 C 8,4 C 91 % 1000,6 hPa 0,0 l/m 0 min 0 min 89 W/m 19,3 km/h (3 Bft) 97,87 %
21.10.2021 10:10 9,9 C 9,4 C 8,4 C 91 % 1000,6 hPa 0,0 l/m 0 min 0 min 84 W/m 25,7 km/h (4 Bft) 95,74 %
21.10.2021 10:12 9,9 C 9,4 C 8,4 C 91 % 1000,5 hPa 0,0 l/m 0 min 0 min 78 W/m 25,7 km/h (4 Bft) 97,87 %
21.10.2021 10:14 9,9 C 9,4 C 8,4 C 91 % 1000,7 hPa 0,0 l/m 0 min 0 min 73 W/m 12,9 km/h (3 Bft) 97,83 %
21.10.2021 10:16 9,9 C 9,4 C 8,4 C 91 % 1000,6 hPa 0,0 l/m 0 min 0 min 65 W/m 22,5 km/h (4 Bft) 97,87 %
21.10.2021 10:18 9,9 C 9,4 C 8,4 C 91 % 1000,8 hPa 0,0 l/m 0 min 0 min 66 W/m 25,7 km/h (4 Bft) 95,74 %
21.10.2021 10:20 9,9 C 9,4 C 8,4 C 91 % 1001,1 hPa 0,0 l/m 0 min 0 min 89 W/m 19,3 km/h (3 Bft) 97,87 %
21.10.2021 10:22 10,0 C 10,0 C 8,4 C 91 % 1001,0 hPa 0,0 l/m 0 min 2 min 109 W/m 22,5 km/h (4 Bft) 95,74 %
21.10.2021 10:24 10,0 C 10,0 C 8,4 C 91 % 1001,1 hPa 0,0 l/m 0 min 0 min 134 W/m 22,5 km/h (4 Bft) 97,83 %
21.10.2021 10:26 10,1 C 10,0 C 8,4 C 91 % 1001,1 hPa 0,0 l/m 0 min 0 min 110 W/m 25,7 km/h (4 Bft) 97,87 %
21.10.2021 10:28 10,2 C 10,0 C 8,4 C 91 % 1001,2 hPa 0,0 l/m 0 min 0 min 96 W/m 22,5 km/h (4 Bft) 97,87 %
21.10.2021 10:30 10,3 C 10,0 C 8,4 C 90 % 1001,2 hPa 0,0 l/m 0 min 0 min 111 W/m 22,5 km/h (4 Bft) 97,87 %
21.10.2021 10:32 10,3 C 10,0 C 8,9 C 90 % 1001,3 hPa 0,0 l/m 0 min 0 min 88 W/m 12,9 km/h (3 Bft) 100,00 %
21.10.2021 10:34 10,4 C 10,6 C 8,9 C 90 % 1001,3 hPa 0,0 l/m 0 min 0 min 102 W/m 35,4 km/h (5 Bft) 100,00 %
21.10.2021 10:36 10,4 C 10,6 C 8,9 C 90 % 1001,2 hPa 0,0 l/m 0 min 0 min 89 W/m 25,7 km/h (4 Bft) 100,00 %
21.10.2021 10:38 10,5 C 10,6 C 8,9 C 90 % 1001,3 hPa 0,0 l/m 0 min 0 min 158 W/m 25,7 km/h (4 Bft) 100,00 %
21.10.2021 10:40 10,5 C 10,6 C 8,9 C 90 % 1001,3 hPa 0,0 l/m 0 min 0 min 95 W/m 22,5 km/h (4 Bft) 100,00 %
21.10.2021 10:42 10,6 C 10,6 C 8,9 C 89 % 1001,3 hPa 0,0 l/m 0 min 0 min 90 W/m 22,5 km/h (4 Bft) 100,00 %
21.10.2021 10:44 10,7 C 10,6 C 8,9 C 89 % 1001,5 hPa 0,0 l/m 0 min 0 min 148 W/m 19,3 km/h (3 Bft) 100,00 %
21.10.2021 10:46 10,8 C 11,1 C 8,9 C 89 % 1001,5 hPa 0,0 l/m 0 min 0 min 135 W/m 19,3 km/h (3 Bft) 97,87 %
21.10.2021 10:48 10,8 C 10,6 C 8,9 C 89 % 1001,5 hPa 0,0 l/m 0 min 0 min 104 W/m 22,5 km/h (4 Bft) 100,00 %
21.10.2021 10:50 10,9 C 11,1 C 8,9 C 89 % 1001,6 hPa 0,0 l/m 2 min 0 min 195 W/m 22,5 km/h (4 Bft) 97,83 %
21.10.2021 10:52 10,9 C 11,1 C 8,9 C 89 % 1001,6 hPa 0,0 l/m 2 min 0 min 193 W/m 29,0 km/h (5 Bft) 100,00 %
21.10.2021 10:54 11,0 C 11,7 C 8,9 C 88 % 1001,6 hPa 0,0 l/m 2 min 0 min 204 W/m 29,0 km/h (5 Bft) 97,87 %
21.10.2021 10:56 11,1 C 11,1 C 8,9 C 88 % 1001,8 hPa 0,0 l/m 0 min 0 min 87 W/m 29,0 km/h (5 Bft) 97,87 %
21.10.2021 10:58 11,1 C 11,1 C 8,9 C 87 % 1001,8 hPa 0,0 l/m 0 min 0 min 86 W/m 25,7 km/h (4 Bft) 97,87 %
21.10.2021 11:00 11,1 C 10,6 C 8,9 C 87 % 1001,8 hPa 0,0 l/m 0 min 0 min 92 W/m 25,7 km/h (4 Bft) 97,83 %
21.10.2021 11:02 11,0 C 10,6 C 8,9 C 87 % 1001,9 hPa 0,0 l/m 0 min 0 min 83 W/m 22,5 km/h (4 Bft) 97,87 %
21.10.2021 11:04 11,0 C 10,6 C 8,9 C 87 % 1002,1 hPa 0,0 l/m 0 min 2 min 63 W/m 25,7 km/h (4 Bft) 97,87 %
21.10.2021 11:06 10,9 C 10,0 C 8,9 C 87 % 1002,0 hPa 0,0 l/m 0 min 2 min 49 W/m 22,5 km/h (4 Bft) 95,74 %
21.10.2021 11:08 10,8 C 10,0 C 8,9 C 87 % 1002,1 hPa 0,0 l/m 0 min 2 min 85 W/m 19,3 km/h (3 Bft) 97,87 %
21.10.2021 11:10 10,8 C 10,0 C 8,9 C 88 % 1002,1 hPa 0,0 l/m 0 min 2 min 88 W/m 16,1 km/h (3 Bft) 97,87 %
21.10.2021 11:12 10,7 C 10,0 C 8,9 C 89 % 1002,2 hPa 0,0 l/m 0 min 0 min 52 W/m 12,9 km/h (3 Bft) 97,83 %
21.10.2021 11:14 10,6 C 10,0 C 8,9 C 89 % 1002,2 hPa 0,0 l/m 0 min 0 min 34 W/m 25,7 km/h (4 Bft) 95,74 %
21.10.2021 11:16 10,5 C 10,0 C 8,4 C 89 % 1002,3 hPa 0,0 l/m 0 min 2 min 34 W/m 16,1 km/h (3 Bft) 93,62 %
21.10.2021 11:18 10,5 C 10,0 C 8,4 C 89 % 1002,4 hPa 0,0 l/m 0 min 2 min 60 W/m 9,7 km/h (2 Bft) 95,74 %
21.10.2021 11:20 10,5 C 10,0 C 8,4 C 89 % 1002,4 hPa 0,0 l/m 0 min 2 min 75 W/m 25,7 km/h (4 Bft) 95,74 %
21.10.2021 11:22 10,4 C 10,0 C 8,4 C 89 % 1002,4 hPa 0,0 l/m 0 min 2 min 50 W/m 25,7 km/h (4 Bft) 95,65 %
21.10.2021 11:24 10,4 C 10,0 C 8,4 C 88 % 1002,4 hPa 0,0 l/m 0 min 2 min 47 W/m 16,1 km/h (3 Bft) 91,49 %
21.10.2021 11:26 10,5 C 10,0 C 8,4 C 88 % 1002,5 hPa 0,0 l/m 0 min 2 min 68 W/m 29,0 km/h (5 Bft) 93,62 %
21.10.2021 11:28 10,5 C 10,0 C 8,4 C 88 % 1002,5 hPa 0,0 l/m 0 min 2 min 74 W/m 51,5 km/h (7 Bft) 97,87 %
21.10.2021 11:30 10,5 C 10,6 C 8,4 C 87 % 1002,6 hPa 0,0 l/m 0 min 0 min 58 W/m 35,4 km/h (5 Bft) 97,87 %
21.10.2021 11:32 10,6 C 10,6 C 8,4 C 87 % 1002,6 hPa 0,0 l/m 0 min 0 min 75 W/m 25,7 km/h (4 Bft) 97,87 %
21.10.2021 11:34 10,6 C 10,6 C 8,4 C 87 % 1002,7 hPa 0,0 l/m 0 min 0 min 99 W/m 38,6 km/h (5 Bft) 97,87 %
21.10.2021 11:36 10,7 C 11,1 C 8,4 C 86 % 1002,6 hPa 0,0 l/m 0 min 0 min 128 W/m 48,3 km/h (6 Bft) 97,83 %
21.10.2021 11:38 10,9 C 13,3 C 8,9 C 86 % 1002,6 hPa 0,0 l/m 0 min 0 min 167 W/m 29,0 km/h (5 Bft) 97,87 %
21.10.2021 11:40 11,0 C 13,9 C 9,5 C 86 % 1002,7 hPa 0,0 l/m 2 min 0 min 411 W/m 22,5 km/h (4 Bft) 97,87 %
21.10.2021 11:42 11,1 C 12,2 C 8,9 C 85 % 1002,7 hPa 0,0 l/m 2 min 0 min 317 W/m 35,4 km/h (5 Bft) 95,74 %
21.10.2021 11:44 11,3 C 11,7 C 8,9 C 85 % 1002,7 hPa 0,0 l/m 0 min 0 min 107 W/m 19,3 km/h (3 Bft) 97,87 %
21.10.2021 11:46 11,2 C 11,1 C 8,9 C 84 % 1002,8 hPa 0,0 l/m 0 min 0 min 98 W/m 19,3 km/h (3 Bft) 97,83 %
21.10.2021 11:48 11,3 C 11,1 C 8,9 C 84 % 1002,8 hPa 0,0 l/m 0 min 0 min 146 W/m 35,4 km/h (5 Bft) 97,87 %
21.10.2021 11:50 11,3 C 11,7 C 8,9 C 84 % 1002,7 hPa 0,0 l/m 2 min 0 min 211 W/m 25,7 km/h (4 Bft) 97,87 %
21.10.2021 11:52 11,3 C 11,7 C 8,9 C 84 % 1002,9 hPa 0,0 l/m 0 min 0 min 157 W/m 29,0 km/h (5 Bft) 95,74 %
21.10.2021 11:54 11,3 C 11,1 C 8,9 C 84 % 1003,0 hPa 0,0 l/m 0 min 0 min 145 W/m 29,0 km/h (5 Bft) 97,87 %
21.10.2021 11:56 11,3 C 11,1 C 8,9 C 83 % 1003,1 hPa 0,0 l/m 0 min 2 min 156 W/m 25,7 km/h (4 Bft) 97,87 %
21.10.2021 11:58 11,3 C 11,1 C 8,9 C 84 % 1003,1 hPa 0,0 l/m 0 min 2 min 202 W/m 41,8 km/h (6 Bft) 97,83 %
21.10.2021 12:00 11,4 C 11,1 C 8,9 C 83 % 1003,0 hPa 0,0 l/m 2 min 0 min 227 W/m 38,6 km/h (5 Bft) 93,62 %
21.10.2021 12:02 11,4 C 11,7 C 8,9 C 83 % 1003,2 hPa 0,0 l/m 0 min 2 min 206 W/m 35,4 km/h (5 Bft) 97,87 %
21.10.2021 12:04 11,4 C 11,7 C 8,9 C 82 % 1003,2 hPa 0,0 l/m 0 min 0 min 211 W/m 25,7 km/h (4 Bft) 100,00 %
21.10.2021 12:06 11,4 C 11,7 C 8,9 C 82 % 1003,2 hPa 0,0 l/m 0 min 0 min 191 W/m 25,7 km/h (4 Bft) 100,00 %
21.10.2021 12:08 11,4 C 11,1 C 8,9 C 82 % 1003,1 hPa 0,0 l/m 0 min 0 min 167 W/m 25,7 km/h (4 Bft) 95,74 %
21.10.2021 12:10 11,4 C 11,1 C 8,9 C 82 % 1003,1 hPa 0,0 l/m 0 min 0 min 177 W/m 35,4 km/h (5 Bft) 97,87 %
21.10.2021 12:12 11,5 C 11,7 C 8,9 C 82 % 1003,1 hPa 0,0 l/m 0 min 0 min 198 W/m 19,3 km/h (3 Bft) 97,87 %
21.10.2021 12:14 11,5 C 11,7 C 8,9 C 82 % 1003,0 hPa 0,0 l/m 0 min 0 min 204 W/m 22,5 km/h (4 Bft) 100,00 %
21.10.2021 12:16 11,5 C 11,7 C 8,9 C 81 % 1003,1 hPa 0,0 l/m 0 min 0 min 205 W/m 32,2 km/h (5 Bft) 95,74 %
21.10.2021 12:18 11,5 C 11,7 C 8,9 C 81 % 1003,1 hPa 0,0 l/m 0 min 2 min 168 W/m 22,5 km/h (4 Bft) 95,74 %
21.10.2021 12:20 11,6 C 11,7 C 8,9 C 81 % 1003,0 hPa 0,0 l/m 0 min 0 min 167 W/m 32,2 km/h (5 Bft) 100,00 %
21.10.2021 12:22 11,6 C 11,7 C 8,9 C 80 % 1003,0 hPa 0,0 l/m 0 min 0 min 172 W/m 29,0 km/h (5 Bft) 100,00 %
21.10.2021 12:24 11,6 C 11,7 C 8,9 C 79 % 1003,1 hPa 0,0 l/m 0 min 0 min 216 W/m 29,0 km/h (5 Bft) 100,00 %
21.10.2021 12:26 11,6 C 11,7 C 8,9 C 80 % 1003,1 hPa 0,0 l/m 2 min 0 min 241 W/m 22,5 km/h (4 Bft) 95,65 %
21.10.2021 12:28 11,8 C 11,7 C 9,5 C 79 % 1003,1 hPa 0,0 l/m 0 min 0 min 218 W/m 25,7 km/h (4 Bft) 100,00 %
21.10.2021 12:30 11,8 C 11,7 C 9,5 C 79 % 1003,1 hPa 0,0 l/m 0 min 0 min 166 W/m 32,2 km/h (5 Bft) 100,00 %
21.10.2021 12:32 11,8 C 11,7 C 8,9 C 79 % 1003,2 hPa 0,0 l/m 0 min 0 min 148 W/m 22,5 km/h (4 Bft) 97,87 %
21.10.2021 12:34 11,8 C 11,7 C 9,5 C 79 % 1003,3 hPa 0,0 l/m 0 min 0 min 140 W/m 22,5 km/h (4 Bft) 97,87 %
21.10.2021 12:36 11,8 C 11,7 C 9,5 C 80 % 1003,5 hPa 0,0 l/m 0 min 0 min 134 W/m 38,6 km/h (5 Bft) 95,74 %
21.10.2021 12:38 11,8 C 11,7 C 9,5 C 81 % 1003,5 hPa 0,0 l/m 0 min 0 min 167 W/m 22,5 km/h (4 Bft) 95,92 %
21.10.2021 12:40 11,8 C 11,7 C 9,5 C 81 % 1003,6 hPa 0,0 l/m 0 min 0 min 170 W/m 25,7 km/h (4 Bft) 95,74 %
21.10.2021 12:42 11,8 C 11,7 C 9,5 C 82 % 1003,5 hPa 0,0 l/m 0 min 2 min 202 W/m 29,0 km/h (5 Bft) 97,87 %
21.10.2021 12:44 11,8 C 11,7 C 9,5 C 82 % 1003,6 hPa 0,0 l/m 2 min 2 min 262 W/m 25,7 km/h (4 Bft) 97,87 %
21.10.2021 12:46 11,8 C 11,7 C 10,0 C 83 % 1003,8 hPa 0,0 l/m 2 min 2 min 248 W/m 25,7 km/h (4 Bft) 97,87 %
21.10.2021 12:48 11,8 C 12,2 C 10,0 C 83 % 1003,6 hPa 0,0 l/m 0 min 0 min 207 W/m 35,4 km/h (5 Bft) 91,30 %
21.10.2021 12:50 11,9 C 12,2 C 10,0 C 82 % 1003,5 hPa 0,0 l/m 0 min 0 min 193 W/m 29,0 km/h (5 Bft) 97,87 %
21.10.2021 12:52 11,9 C 12,2 C 10,0 C 82 % 1003,6 hPa 0,0 l/m 0 min 0 min 191 W/m 32,2 km/h (5 Bft) 97,87 %
21.10.2021 12:54 11,9 C 12,2 C 10,6 C 82 % 1003,7 hPa 0,0 l/m 0 min 0 min 219 W/m 29,0 km/h (5 Bft) 95,74 %
21.10.2021 12:56 12,0 C 12,2 C 10,6 C 82 % 1003,7 hPa 0,0 l/m 2 min 0 min 255 W/m 29,0 km/h (5 Bft) 95,74 %
21.10.2021 12:58 12,0 C 12,2 C 10,6 C 82 % 1003,7 hPa 0,0 l/m 2 min 0 min 239 W/m 32,2 km/h (5 Bft) 95,74 %
21.10.2021 13:00 12,0 C 12,2 C 10,6 C 82 % 1003,7 hPa 0,0 l/m 0 min 0 min 229 W/m 32,2 km/h (5 Bft) 95,65 %
21.10.2021 13:02 12,1 C 12,2 C 10,6 C 81 % 1003,8 hPa 0,0 l/m 0 min 0 min 216 W/m 25,7 km/h (4 Bft) 94,59 %
21.10.2021 13:04 12,1 C 12,2 C 10,6 C 82 % 1003,8 hPa 0,0 l/m 0 min 0 min 184 W/m 19,3 km/h (3 Bft) 95,65 %
21.10.2021 13:06 12,1 C 12,2 C 10,6 C 82 % 1003,9 hPa 0,0 l/m 0 min 0 min 169 W/m 22,5 km/h (4 Bft) 95,74 %
21.10.2021 13:08 12,1 C 12,2 C 10,6 C 82 % 1003,9 hPa 0,0 l/m 0 min 0 min 196 W/m 22,5 km/h (4 Bft) 95,74 %
21.10.2021 13:10 12,1 C 12,2 C 10,6 C 81 % 1004,0 hPa 0,0 l/m 2 min 0 min 252 W/m 35,4 km/h (5 Bft) 95,74 %
21.10.2021 13:12 12,1 C 12,2 C 10,6 C 81 % 1003,9 hPa 0,0 l/m 2 min 0 min 247 W/m 22,5 km/h (4 Bft) 95,74 %
21.10.2021 13:14 12,2 C 12,2 C 11,1 C 81 % 1004,0 hPa 0,0 l/m 2 min 0 min 257 W/m 25,7 km/h (4 Bft) 95,74 %
21.10.2021 13:16 12,2 C 12,2 C 10,6 C 81 % 1004,0 hPa 0,0 l/m 0 min 0 min 205 W/m 29,0 km/h (5 Bft) 93,48 %
21.10.2021 13:18 12,1 C 12,2 C 10,6 C 81 % 1004,0 hPa 0,0 l/m 0 min 0 min 178 W/m 29,0 km/h (5 Bft) 93,62 %
21.10.2021 13:20 12,1 C 11,7 C 10,6 C 81 % 1004,2 hPa 0,0 l/m 0 min 0 min 112 W/m 29,0 km/h (5 Bft) 95,74 %
21.10.2021 13:22 12,1 C 11,7 C 10,6 C 81 % 1004,1 hPa 0,0 l/m 0 min 0 min 67 W/m 32,2 km/h (5 Bft) 95,74 %
21.10.2021 13:24 12,0 C 11,7 C 10,6 C 81 % 1004,1 hPa 0,0 l/m 0 min 0 min 70 W/m 22,5 km/h (4 Bft) 95,74 %
21.10.2021 13:26 11,9 C 11,7 C 10,0 C 81 % 1004,2 hPa 0,0 l/m 0 min 0 min 86 W/m 25,7 km/h (4 Bft) 95,65 %
21.10.2021 13:28 11,9 C 11,7 C 10,6 C 82 % 1004,2 hPa 0,0 l/m 0 min 0 min 132 W/m 25,7 km/h (4 Bft) 95,74 %
21.10.2021 13:30 11,9 C 11,7 C 10,6 C 82 % 1004,1 hPa 0,0 l/m 0 min 0 min 149 W/m 22,5 km/h (4 Bft) 97,87 %
21.10.2021 13:32 11,9 C 11,7 C 10,6 C 82 % 1004,2 hPa 0,0 l/m 0 min 0 min 155 W/m 25,7 km/h (4 Bft) 100,00 %
21.10.2021 13:34 11,9 C 11,7 C 10,6 C 82 % 1004,1 hPa 0,0 l/m 0 min 0 min 144 W/m 19,3 km/h (3 Bft) 100,00 %
21.10.2021 13:36 11,9 C 11,7 C 10,6 C 81 % 1004,2 hPa 0,0 l/m 0 min 0 min 139 W/m 38,6 km/h (5 Bft) 100,00 %
21.10.2021 13:38 11,9 C 11,7 C 10,6 C 81 % 1004,2 hPa 0,0 l/m 0 min 0 min 174 W/m 32,2 km/h (5 Bft) 100,00 %
21.10.2021 13:40 11,9 C 11,7 C 10,6 C 82 % 1004,3 hPa 0,0 l/m 0 min 0 min 178 W/m 22,5 km/h (4 Bft) 100,00 %
21.10.2021 13:42 11,9 C 11,7 C 10,6 C 82 % 1004,2 hPa 0,0 l/m 0 min 0 min 156 W/m 25,7 km/h (4 Bft) 97,87 %
21.10.2021 13:44 12,0 C 11,7 C 10,6 C 82 % 1004,2 hPa 0,0 l/m 0 min 0 min 156 W/m 22,5 km/h (4 Bft) 100,00 %
21.10.2021 13:46 12,0 C 11,7 C 10,6 C 82 % 1004,2 hPa 0,0 l/m 0 min 0 min 169 W/m 19,3 km/h (3 Bft) 100,00 %
21.10.2021 13:48 12,0 C 11,7 C 10,6 C 82 % 1004,3 hPa 0,0 l/m 0 min 0 min 191 W/m 22,5 km/h (4 Bft) 100,00 %
21.10.2021 13:50 12,0 C 12,2 C 10,6 C 82 % 1004,3 hPa 0,0 l/m 0 min 0 min 222 W/m 16,1 km/h (3 Bft) 97,87 %
21.10.2021 13:52 12,0 C 12,2 C 10,6 C 82 % 1004,2 hPa 0,0 l/m 0 min 0 min 169 W/m 12,9 km/h (3 Bft) 100,00 %
21.10.2021 13:54 12,1 C 12,2 C 10,6 C 82 % 1004,2 hPa 0,0 l/m 0 min 0 min 126 W/m 22,5 km/h (4 Bft) 100,00 %
21.10.2021 13:56 12,0 C 12,2 C 10,6 C 82 % 1004,1 hPa 0,0 l/m 0 min 0 min 148 W/m 29,0 km/h (5 Bft) 100,00 %
21.10.2021 13:58 12,1 C 12,2 C 10,6 C 82 % 1004,1 hPa 0,0 l/m 0 min 0 min 153 W/m 32,2 km/h (5 Bft) 100,00 %
21.10.2021 14:00 12,0 C 11,7 C 10,6 C 82 % 1004,0 hPa 0,0 l/m 0 min 0 min 132 W/m 25,7 km/h (4 Bft) 95,74 %
21.10.2021 14:02 12,0 C 11,7 C 10,6 C 81 % 1004,0 hPa 0,0 l/m 0 min 0 min 139 W/m 32,2 km/h (5 Bft) 95,74 %
21.10.2021 14:04 12,0 C 11,7 C 10,6 C 82 % 1003,9 hPa 0,0 l/m 0 min 0 min 155 W/m 35,4 km/h (5 Bft) 97,87 %
21.10.2021 14:06 12,0 C 13,3 C 10,6 C 82 % 1003,8 hPa 0,0 l/m 2 min 0 min 291 W/m 25,7 km/h (4 Bft) 97,83 %
21.10.2021 14:08 12,3 C 15,6 C 10,6 C 83 % 1003,8 hPa 0,0 l/m 2 min 0 min 465 W/m 25,7 km/h (4 Bft) 97,87 %
21.10.2021 14:10 12,4 C 15,6 C 11,1 C 83 % 1003,9 hPa 0,0 l/m 2 min 0 min 463 W/m 29,0 km/h (5 Bft) 97,87 %
21.10.2021 14:12 12,6 C 15,6 C 11,1 C 82 % 1003,9 hPa 0,0 l/m 2 min 0 min 462 W/m 29,0 km/h (5 Bft) 97,87 %
21.10.2021 14:14 12,7 C 13,9 C 11,1 C 81 % 1003,9 hPa 0,0 l/m 2 min 0 min 590 W/m 25,7 km/h (4 Bft) 97,87 %
21.10.2021 14:16 12,6 C 12,8 C 11,1 C 81 % 1004,0 hPa 0,0 l/m 2 min 0 min 254 W/m 25,7 km/h (4 Bft) 95,74 %
21.10.2021 14:18 12,6 C 12,2 C 10,6 C 81 % 1004,3 hPa 0,0 l/m 0 min 0 min 118 W/m 19,3 km/h (3 Bft) 95,65 %
21.10.2021 14:20 12,4 C 11,7 C 10,0 C 83 % 1004,7 hPa 0,4 l/m 0 min 2 min 28 W/m 32,2 km/h (5 Bft) 43,24 %
21.10.2021 14:22 11,8 C 10,0 C 8,4 C 83 % 1004,6 hPa 0,2 l/m 0 min 2 min 33 W/m 41,8 km/h (6 Bft) 97,87 %
21.10.2021 14:24 11,2 C 9,4 C 7,8 C 83 % 1004,6 hPa 0,2 l/m 0 min 2 min 47 W/m 25,7 km/h (4 Bft) 95,74 %
21.10.2021 14:26 10,7 C 9,4 C 7,3 C 84 % 1004,6 hPa 0,0 l/m 0 min 2 min 51 W/m 35,4 km/h (5 Bft) 97,87 %
21.10.2021 14:28 10,4 C 9,4 C 7,3 C 85 % 1004,7 hPa 0,0 l/m 0 min 2 min 63 W/m 35,4 km/h (5 Bft) 97,83 %
21.10.2021 14:30 10,3 C 9,4 C 7,3 C 86 % 1004,7 hPa 0,0 l/m 0 min 2 min 67 W/m 32,2 km/h (5 Bft) 95,74 %
21.10.2021 14:32 10,1 C 9,4 C 7,3 C 86 % 1004,6 hPa 0,0 l/m 0 min 2 min 76 W/m 25,7 km/h (4 Bft) 97,87 %
21.10.2021 14:34 10,1 C 9,4 C 7,3 C 87 % 1004,6 hPa 0,0 l/m 0 min 2 min 72 W/m 29,0 km/h (5 Bft) 97,87 %
21.10.2021 14:36 10,0 C 9,4 C 7,3 C 86 % 1004,7 hPa 0,0 l/m 0 min 2 min 69 W/m 35,4 km/h (5 Bft) 95,74 %
21.10.2021 14:38 9,9 C 8,9 C 7,3 C 87 % 1004,8 hPa 0,0 l/m 0 min 2 min 70 W/m 35,4 km/h (5 Bft) 97,87 %
21.10.2021 14:40 9,8 C 8,9 C 7,3 C 87 % 1004,8 hPa 0,2 l/m 0 min 2 min 70 W/m 25,7 km/h (4 Bft) 95,65 %
21.10.2021 14:42 9,7 C 8,9 C 6,7 C 88 % 1004,8 hPa 0,0 l/m 0 min 2 min 73 W/m 32,2 km/h (5 Bft) 95,74 %
21.10.2021 14:44 9,6 C 8,9 C 6,7 C 88 % 1004,8 hPa 0,0 l/m 0 min 2 min 92 W/m 22,5 km/h (4 Bft) 97,87 %
21.10.2021 14:46 9,5 C 8,9 C 6,7 C 88 % 1004,9 hPa 0,0 l/m 0 min 2 min 107 W/m 29,0 km/h (5 Bft) 97,87 %
21.10.2021 14:48 9,4 C 8,3 C 6,7 C 88 % 1005,0 hPa 0,2 l/m 0 min 2 min 100 W/m 25,7 km/h (4 Bft) 97,87 %
21.10.2021 14:50 9,3 C 8,3 C 6,7 C 88 % 1005,0 hPa 0,0 l/m 0 min 2 min 95 W/m 29,0 km/h (5 Bft) 97,87 %
21.10.2021 14:52 9,3 C 8,9 C 6,7 C 88 % 1004,9 hPa 0,0 l/m 0 min 2 min 95 W/m 22,5 km/h (4 Bft) 97,83 %
21.10.2021 14:54 9,3 C 8,9 C 6,7 C 88 % 1004,9 hPa 0,0 l/m 0 min 2 min 116 W/m 22,5 km/h (4 Bft) 100,00 %
21.10.2021 14:56 9,2 C 8,9 C 6,7 C 88 % 1004,8 hPa 0,0 l/m 0 min 2 min 115 W/m 25,7 km/h (4 Bft) 97,87 %
21.10.2021 14:58 9,3 C 8,9 C 6,7 C 89 % 1004,9 hPa 0,0 l/m 0 min 2 min 134 W/m 25,7 km/h (4 Bft) 97,87 %
21.10.2021 15:00 9,3 C 8,9 C 7,3 C 89 % 1005,0 hPa 0,0 l/m 0 min 2 min 132 W/m 19,3 km/h (3 Bft) 97,87 %
21.10.2021 15:02 9,4 C 9,4 C 7,3 C 89 % 1005,1 hPa 0,0 l/m 0 min 2 min 122 W/m 25,7 km/h (4 Bft) 97,87 %
21.10.2021 15:04 9,4 C 9,4 C 7,3 C 89 % 1005,0 hPa 0,0 l/m 0 min 2 min 114 W/m 22,5 km/h (4 Bft) 97,83 %
21.10.2021 15:06 9,5 C 9,4 C 7,3 C 89 % 1005,1 hPa 0,0 l/m 0 min 2 min 100 W/m 22,5 km/h (4 Bft) 97,87 %
21.10.2021 15:08 9,5 C 8,9 C 7,3 C 89 % 1005,1 hPa 0,0 l/m 0 min 2 min 81 W/m 22,5 km/h (4 Bft) 93,62 %
21.10.2021 15:10 9,5 C 9,4 C 7,3 C 89 % 1005,1 hPa 0,0 l/m 0 min 0 min 99 W/m 22,5 km/h (4 Bft) 97,87 %
21.10.2021 15:12 9,6 C 9,4 C 7,3 C 89 % 1005,2 hPa 0,0 l/m 0 min 2 min 128 W/m 19,3 km/h (3 Bft) 97,87 %
21.10.2021 15:14 9,6 C 9,4 C 7,3 C 89 % 1005,2 hPa 0,0 l/m 0 min 2 min 151 W/m 22,5 km/h (4 Bft) 97,83 %
21.10.2021 15:16 9,8 C 9,4 C 7,8 C 89 % 1005,3 hPa 0,0 l/m 0 min 2 min 176 W/m 16,1 km/h (3 Bft) 97,87 %
21.10.2021 15:18 9,8 C 10,0 C 7,8 C 89 % 1005,4 hPa 0,0 l/m 0 min 0 min 186 W/m 19,3 km/h (3 Bft) 97,87 %
21.10.2021 15:20 9,9 C 10,0 C 7,8 C 89 % 1005,5 hPa 0,0 l/m 0 min 0 min 189 W/m 25,7 km/h (4 Bft) 97,87 %
21.10.2021 15:22 9,9 C 10,0 C 7,8 C 89 % 1005,5 hPa 0,0 l/m 0 min 0 min 168 W/m 25,7 km/h (4 Bft) 95,74 %
21.10.2021 15:24 10,0 C 10,0 C 7,8 C 89 % 1005,5 hPa 0,0 l/m 0 min 0 min 150 W/m 16,1 km/h (3 Bft) 95,74 %
21.10.2021 15:26 10,0 C 10,0 C 7,8 C 89 % 1005,6 hPa 0,0 l/m 0 min 2 min 144 W/m 16,1 km/h (3 Bft) 97,83 %
21.10.2021 15:28 10,0 C 10,0 C 7,8 C 89 % 1005,6 hPa 0,0 l/m 0 min 0 min 143 W/m 22,5 km/h (4 Bft) 100,00 %
21.10.2021 15:30 10,0 C 10,0 C 7,8 C 88 % 1005,7 hPa 0,0 l/m 0 min 0 min 119 W/m 25,7 km/h (4 Bft) 97,87 %
21.10.2021 15:32 10,0 C 10,0 C 7,8 C 88 % 1005,8 hPa 0,0 l/m 0 min 0 min 106 W/m 29,0 km/h (5 Bft) 100,00 %
21.10.2021 15:34 10,0 C 9,4 C 7,8 C 88 % 1005,8 hPa 0,0 l/m 0 min 0 min 76 W/m 25,7 km/h (4 Bft) 100,00 %
21.10.2021 15:36 10,1 C 9,4 C 7,8 C 88 % 1005,9 hPa 0,0 l/m 0 min 0 min 70 W/m 19,3 km/h (3 Bft) 97,87 %
21.10.2021 15:38 10,1 C 9,4 C 7,8 C 88 % 1006,0 hPa 0,0 l/m 0 min 0 min 63 W/m 16,1 km/h (3 Bft) 95,65 %
21.10.2021 15:40 10,1 C 9,4 C 7,8 C 88 % 1006,1 hPa 0,0 l/m 0 min 2 min 67 W/m 22,5 km/h (4 Bft) 97,87 %
21.10.2021 15:42 10,1 C 9,4 C 7,8 C 89 % 1006,2 hPa 0,0 l/m 0 min 2 min 81 W/m 32,2 km/h (5 Bft) 95,74 %
21.10.2021 15:44 10,0 C 9,4 C 7,8 C 88 % 1006,3 hPa 0,0 l/m 0 min 2 min 75 W/m 35,4 km/h (5 Bft) 97,87 %
21.10.2021 15:46 10,0 C 9,4 C 7,8 C 88 % 1006,2 hPa 0,0 l/m 0 min 2 min 95 W/m 29,0 km/h (5 Bft) 97,87 %
21.10.2021 15:48 10,0 C 9,4 C 7,8 C 88 % 1006,4 hPa 0,0 l/m 0 min 2 min 84 W/m 19,3 km/h (3 Bft) 97,87 %
21.10.2021 15:50 9,9 C 9,4 C 7,8 C 88 % 1006,4 hPa 0,0 l/m 0 min 2 min 78 W/m 16,1 km/h (3 Bft) 95,65 %
21.10.2021 15:52 9,9 C 9,4 C 7,8 C 88 % 1006,4 hPa 0,0 l/m 0 min 2 min 93 W/m 12,9 km/h (3 Bft) 97,87 %
21.10.2021 15:54 9,9 C 9,4 C 7,8 C 88 % 1006,4 hPa 0,0 l/m 0 min 0 min 81 W/m 25,7 km/h (4 Bft) 97,87 %
21.10.2021 15:56 9,8 C 9,4 C 7,8 C 88 % 1006,5 hPa 0,0 l/m 0 min 2 min 110 W/m 12,9 km/h (3 Bft) 95,74 %
21.10.2021 15:58 9,8 C 9,4 C 7,8 C 88 % 1006,5 hPa 0,0 l/m 0 min 2 min 148 W/m 16,1 km/h (3 Bft) 97,87 %
21.10.2021 16:00 9,8 C 9,4 C 7,8 C 89 % 1006,5 hPa 0,0 l/m 0 min 0 min 123 W/m 12,9 km/h (3 Bft) 97,87 %
21.10.2021 16:02 9,8 C 9,4 C 7,8 C 89 % 1006,6 hPa 0,0 l/m 0 min 0 min 76 W/m 12,9 km/h (3 Bft) 95,65 %
21.10.2021 16:04 9,8 C 9,4 C 7,8 C 89 % 1006,6 hPa 0,0 l/m 0 min 2 min 74 W/m 12,9 km/h (3 Bft) 97,87 %
21.10.2021 16:06 9,7 C 9,4 C 7,8 C 89 % 1006,6 hPa 0,0 l/m 0 min 2 min 84 W/m 9,7 km/h (2 Bft) 95,74 %
21.10.2021 16:08 9,7 C 9,4 C 7,8 C 89 % 1006,8 hPa 0,0 l/m 0 min 2 min 111 W/m 12,9 km/h (3 Bft) 97,87 %
21.10.2021 16:10 9,8 C 9,4 C 7,8 C 89 % 1006,8 hPa 0,0 l/m 0 min 0 min 144 W/m 19,3 km/h (3 Bft) 98,18 %
21.10.2021 16:12 9,8 C 9,4 C 8,4 C 89 % 1006,8 hPa 0,0 l/m 0 min 0 min 135 W/m 12,9 km/h (3 Bft) 97,87 %
21.10.2021 16:14 9,8 C 10,0 C 8,4 C 89 % 1006,8 hPa 0,0 l/m 2 min 0 min 154 W/m 12,9 km/h (3 Bft) 97,87 %
21.10.2021 16:16 9,8 C 10,0 C 8,4 C 89 % 1006,8 hPa 0,0 l/m 2 min 0 min 178 W/m 12,9 km/h (3 Bft) 97,87 %
21.10.2021 16:18 9,9 C 10,0 C 8,4 C 90 % 1006,9 hPa 0,0 l/m 2 min 0 min 176 W/m 16,1 km/h (3 Bft) 97,83 %
21.10.2021 16:20 9,9 C 10,0 C 8,4 C 89 % 1006,9 hPa 0,0 l/m 2 min 0 min 193 W/m 16,1 km/h (3 Bft) 100,00 %
21.10.2021 16:22 9,9 C 10,0 C 8,4 C 89 % 1006,9 hPa 0,0 l/m 2 min 0 min 205 W/m 19,3 km/h (3 Bft) 100,00 %
21.10.2021 16:24 9,9 C 10,0 C 8,4 C 89 % 1006,9 hPa 0,0 l/m 2 min 0 min 201 W/m 16,1 km/h (3 Bft) 97,87 %
21.10.2021 16:26 9,9 C 10,0 C 8,4 C 89 % 1007,0 hPa 0,0 l/m 2 min 2 min 160 W/m 16,1 km/h (3 Bft) 100,00 %
21.10.2021 16:28 9,9 C 10,0 C 8,4 C 89 % 1006,9 hPa 0,0 l/m 2 min 2 min 184 W/m 16,1 km/h (3 Bft) 100,00 %
21.10.2021 16:30 9,9 C 10,0 C 8,4 C 89 % 1006,9 hPa 0,0 l/m 2 min 0 min 252 W/m 19,3 km/h (3 Bft) 100,00 %
21.10.2021 16:32 10,0 C 10,6 C 8,4 C 89 % 1007,0 hPa 0,0 l/m 2 min 0 min 315 W/m 16,1 km/h (3 Bft) 100,00 %
21.10.2021 16:34 10,0 C 10,6 C 8,4 C 89 % 1007,0 hPa 0,0 l/m 2 min 0 min 348 W/m 19,3 km/h (3 Bft) 97,87 %
21.10.2021 16:36 10,1 C 10,6 C 8,4 C 89 % 1007,0 hPa 0,0 l/m 2 min 0 min 322 W/m 16,1 km/h (3 Bft) 100,00 %
21.10.2021 16:38 10,1 C 10,6 C 8,4 C 89 % 1007,0 hPa 0,0 l/m 2 min 0 min 238 W/m 19,3 km/h (3 Bft) 100,00 %
21.10.2021 16:40 10,1 C 10,6 C 8,4 C 88 % 1007,1 hPa 0,0 l/m 2 min 0 min 229 W/m 16,1 km/h (3 Bft) 100,00 %
21.10.2021 16:42 10,2 C 10,6 C 8,4 C 88 % 1007,1 hPa 0,0 l/m 2 min 0 min 269 W/m 12,9 km/h (3 Bft) 100,00 %
21.10.2021 16:44 10,3 C 10,6 C 8,4 C 88 % 1007,2 hPa 0,0 l/m 2 min 0 min 291 W/m 12,9 km/h (3 Bft) 97,87 %
21.10.2021 16:46 10,3 C 10,6 C 8,9 C 87 % 1007,3 hPa 0,0 l/m 2 min 0 min 265 W/m 19,3 km/h (3 Bft) 97,87 %
21.10.2021 16:48 10,3 C 10,6 C 8,4 C 87 % 1007,3 hPa 0,0 l/m 2 min 0 min 261 W/m 19,3 km/h (3 Bft) 97,83 %
21.10.2021 16:50 10,3 C 10,6 C 8,9 C 87 % 1007,3 hPa 0,0 l/m 2 min 0 min 207 W/m 19,3 km/h (3 Bft) 97,87 %
21.10.2021 16:52 10,3 C 10,0 C 8,9 C 87 % 1007,3 hPa 0,0 l/m 2 min 0 min 127 W/m 19,3 km/h (3 Bft) 97,87 %
21.10.2021 16:54 10,3 C 10,0 C 8,9 C 86 % 1007,3 hPa 0,0 l/m 2 min 0 min 134 W/m 25,7 km/h (4 Bft) 97,87 %
21.10.2021 16:56 10,3 C 10,0 C 8,9 C 85 % 1007,3 hPa 0,0 l/m 0 min 0 min 75 W/m 16,1 km/h (3 Bft) 97,87 %
21.10.2021 16:58 10,2 C 10,0 C 8,4 C 85 % 1007,4 hPa 0,0 l/m 0 min 0 min 57 W/m 12,9 km/h (3 Bft) 97,87 %
21.10.2021 17:00 10,1 C 10,0 C 8,4 C 85 % 1007,5 hPa 0,0 l/m 0 min 0 min 60 W/m 19,3 km/h (3 Bft) 97,83 %
21.10.2021 17:02 10,1 C 10,0 C 8,4 C 85 % 1007,6 hPa 0,0 l/m 0 min 0 min 69 W/m 19,3 km/h (3 Bft) 97,87 %
21.10.2021 17:04 10,0 C 9,4 C 8,4 C 85 % 1007,6 hPa 0,0 l/m 0 min 0 min 58 W/m 25,7 km/h (4 Bft) 95,74 %
21.10.2021 17:06 10,0 C 9,4 C 8,4 C 85 % 1007,8 hPa 0,0 l/m 0 min 0 min 51 W/m 12,9 km/h (3 Bft) 100,00 %
21.10.2021 17:08 10,0 C 9,4 C 8,4 C 85 % 1007,9 hPa 0,0 l/m 0 min 0 min 61 W/m 22,5 km/h (4 Bft) 95,74 %
21.10.2021 17:10 10,0 C 10,0 C 8,4 C 86 % 1007,9 hPa 0,0 l/m 0 min 0 min 79 W/m 19,3 km/h (3 Bft) 94,55 %
21.10.2021 17:12 10,0 C 10,0 C 8,4 C 86 % 1007,9 hPa 0,0 l/m 2 min 0 min 92 W/m 16,1 km/h (3 Bft) 95,74 %
21.10.2021 17:14 10,0 C 10,0 C 8,4 C 86 % 1008,0 hPa 0,0 l/m 0 min 0 min 84 W/m 16,1 km/h (3 Bft) 93,62 %
21.10.2021 17:16 10,0 C 10,0 C 8,9 C 86 % 1008,0 hPa 0,0 l/m 0 min 0 min 58 W/m 22,5 km/h (4 Bft) 95,65 %
21.10.2021 17:18 10,0 C 10,0 C 8,9 C 86 % 1008,1 hPa 0,0 l/m 0 min 0 min 50 W/m 35,4 km/h (5 Bft) 95,74 %
21.10.2021 17:20 10,0 C 10,0 C 8,9 C 86 % 1008,0 hPa 0,0 l/m 0 min 0 min 56 W/m 16,1 km/h (3 Bft) 95,74 %
21.10.2021 17:22 10,0 C 10,0 C 8,9 C 86 % 1008,1 hPa 0,0 l/m 0 min 0 min 62 W/m 19,3 km/h (3 Bft) 93,62 %
21.10.2021 17:24 10,0 C 9,4 C 8,4 C 86 % 1008,1 hPa 0,0 l/m 0 min 0 min 30 W/m 16,1 km/h (3 Bft) 97,87 %
21.10.2021 17:26 10,0 C 9,4 C 8,4 C 86 % 1008,1 hPa 0,0 l/m 0 min 0 min 18 W/m 19,3 km/h (3 Bft) 95,74 %
21.10.2021 17:28 10,0 C 9,4 C 8,4 C 86 % 1008,2 hPa 0,0 l/m 0 min 0 min 16 W/m 19,3 km/h (3 Bft) 97,83 %
21.10.2021 17:30 9,9 C 9,4 C 8,4 C 86 % 1008,2 hPa 0,0 l/m 0 min 0 min 11 W/m 22,5 km/h (4 Bft) 97,87 %
21.10.2021 17:32 9,9 C 9,4 C 8,4 C 87 % 1008,6 hPa 0,0 l/m 0 min 2 min 8 W/m 16,1 km/h (3 Bft) 100,00 %
21.10.2021 17:34 9,9 C 8,9 C 7,8 C 87 % 1008,8 hPa 0,0 l/m 0 min 2 min 6 W/m 22,5 km/h (4 Bft) 97,87 %
21.10.2021 17:36 9,7 C 8,3 C 7,3 C 87 % 1008,7 hPa 0,2 l/m 0 min 2 min 6 W/m 22,5 km/h (4 Bft) 97,87 %
21.10.2021 17:38 9,5 C 8,3 C 7,3 C 86 % 1008,8 hPa 0,2 l/m 0 min 2 min 8 W/m 19,3 km/h (3 Bft) 94,74 %
21.10.2021 17:40 9,3 C 7,8 C 6,7 C 86 % 1008,8 hPa 0,0 l/m 0 min 2 min 17 W/m 19,3 km/h (3 Bft) 97,87 %
21.10.2021 17:42 9,2 C 7,8 C 6,7 C 87 % 1008,7 hPa 0,0 l/m 0 min 0 min 22 W/m 6,4 km/h (2 Bft) 95,74 %
21.10.2021 17:44 9,1 C 8,3 C 6,7 C 87 % 1008,8 hPa 0,0 l/m 0 min 0 min 26 W/m 12,9 km/h (3 Bft) 97,87 %
21.10.2021 17:46 9,1 C 8,3 C 6,7 C 88 % 1008,7 hPa 0,0 l/m 0 min 0 min 31 W/m 16,1 km/h (3 Bft) 93,48 %
21.10.2021 17:48 9,1 C 8,3 C 7,3 C 88 % 1008,8 hPa 0,0 l/m 0 min 0 min 34 W/m 6,4 km/h (2 Bft) 97,87 %
21.10.2021 17:50 9,1 C 8,3 C 7,3 C 89 % 1008,9 hPa 0,0 l/m 0 min 0 min 39 W/m 12,9 km/h (3 Bft) 97,87 %
21.10.2021 17:55 9,0 C 8,3 C 7,3 C 89 % 1009,0 hPa 0,0 l/m 5 min 0 min 44 W/m 9,7 km/h (2 Bft) 99,12 %
21.10.2021 18:00 9,0 C 8,9 C 7,3 C 89 % 1009,1 hPa 0,0 l/m 5 min 0 min 39 W/m 9,7 km/h (2 Bft) 100,00 %
21.10.2021 18:04 9,0 C 8,3 C 7,3 C 89 % 1009,2 hPa 0,0 l/m 0 min 0 min 21 W/m 3,2 km/h (1 Bft) 100,00 %
21.10.2021 18:06 8,9 C 8,3 C 7,3 C 89 % 1009,2 hPa 0,0 l/m 0 min 0 min 15 W/m 3,2 km/h (1 Bft) 100,00 %
21.10.2021 18:08 8,9 C 8,3 C 7,3 C 89 % 1009,2 hPa 0,0 l/m 0 min 0 min 10 W/m 3,2 km/h (1 Bft) 93,48 %
21.10.2021 18:10 8,9 C 8,3 C 7,3 C 89 % 1009,3 hPa 0,0 l/m 0 min 0 min 9 W/m 3,2 km/h (1 Bft) 100,00 %
21.10.2021 18:12 8,9 C 8,3 C 7,3 C 89 % 1009,4 hPa 0,0 l/m 0 min 0 min 9 W/m 12,9 km/h (3 Bft) 97,87 %
21.10.2021 18:14 8,9 C 8,3 C 7,3 C 90 % 1009,3 hPa 0,0 l/m 0 min 0 min 8 W/m 6,4 km/h (2 Bft) 97,87 %
21.10.2021 18:16 8,9 C 8,3 C 7,3 C 90 % 1009,4 hPa 0,0 l/m 0 min 0 min 7 W/m 12,9 km/h (3 Bft) 100,00 %
21.10.2021 18:18 8,9 C 8,3 C 7,3 C 90 % 1009,4 hPa 0,0 l/m 0 min 0 min 7 W/m 6,4 km/h (2 Bft) 96,55 %
21.10.2021 18:20 8,9 C 8,3 C 7,3 C 90 % 1009,5 hPa 0,0 l/m 0 min 0 min 5 W/m 6,4 km/h (2 Bft) 97,87 %
21.10.2021 18:22 9,0 C 8,3 C 7,3 C 90 % 1009,5 hPa 0,0 l/m 0 min 0 min 5 W/m 6,4 km/h (2 Bft) 97,83 %
21.10.2021 18:24 9,0 C 8,3 C 7,3 C 90 % 1009,6 hPa 0,0 l/m 0 min 0 min 5 W/m 6,4 km/h (2 Bft) 97,87 %
21.10.2021 18:26 9,0 C 8,3 C 7,3 C 90 % 1009,6 hPa 0,0 l/m 0 min 0 min 5 W/m 6,4 km/h (2 Bft) 97,87 %
21.10.2021 18:28 8,9 C 8,3 C 7,3 C 90 % 1009,7 hPa 0,0 l/m 0 min 0 min 5 W/m 6,4 km/h (2 Bft) 97,87 %
21.10.2021 18:30 8,9 C 8,3 C 7,3 C 90 % 1009,6 hPa 0,0 l/m 0 min 0 min 0 W/m 12,9 km/h (3 Bft) 97,87 %
21.10.2021 18:32 8,9 C 8,3 C 7,3 C 90 % 1009,7 hPa 0,0 l/m 0 min 0 min 0 W/m 6,4 km/h (2 Bft) 97,87 %
21.10.2021 18:34 8,9 C 8,3 C 7,3 C 91 % 1009,7 hPa 0,0 l/m 0 min 0 min 0 W/m 6,4 km/h (2 Bft) 97,87 %
21.10.2021 18:36 8,9 C 8,3 C 7,3 C 91 % 1009,7 hPa 0,0 l/m 0 min 0 min 0 W/m 6,4 km/h (2 Bft) 95,74 %
21.10.2021 18:38 8,9 C 8,3 C 7,3 C 91 % 1009,8 hPa 0,0 l/m 0 min 0 min 0 W/m 6,4 km/h (2 Bft) 97,87 %
21.10.2021 18:40 8,9 C 8,3 C 7,3 C 91 % 1009,8 hPa 0,0 l/m 0 min 0 min 0 W/m 6,4 km/h (2 Bft) 93,62 %
21.10.2021 18:42 8,9 C 7,8 C 7,3 C 91 % 1009,8 hPa 0,0 l/m 0 min 0 min 0 W/m 3,2 km/h (1 Bft) 95,74 %
21.10.2021 18:44 8,9 C 7,8 C 7,3 C 91 % 1009,9 hPa 0,0 l/m 0 min 0 min 0 W/m 6,4 km/h (2 Bft) 95,65 %
21.10.2021 18:46 8,9 C 7,8 C 7,3 C 91 % 1009,9 hPa 0,0 l/m 0 min 0 min 0 W/m 6,4 km/h (2 Bft) 95,74 %
21.10.2021 18:48 8,9 C 7,8 C 7,3 C 91 % 1009,9 hPa 0,0 l/m 0 min 0 min 0 W/m 3,2 km/h (1 Bft) 93,62 %
21.10.2021 18:50 8,8 C 7,8 C 7,3 C 91 % 1009,9 hPa 0,0 l/m 0 min 0 min 0 W/m 3,2 km/h (1 Bft) 95,74 %
21.10.2021 18:52 8,8 C 7,8 C 7,3 C 91 % 1009,9 hPa 0,0 l/m 0 min 0 min 0 W/m 6,4 km/h (2 Bft) 97,14 %
21.10.2021 18:54 8,8 C 7,8 C 7,3 C 91 % 1010,0 hPa 0,0 l/m 0 min 0 min 0 W/m 3,2 km/h (1 Bft) 98,28 %
21.10.2021 18:56 8,8 C 7,8 C 7,3 C 92 % 1010,1 hPa 0,0 l/m 0 min 0 min 0 W/m 3,2 km/h (1 Bft) 97,87 %
21.10.2021 18:58 8,8 C 7,8 C 7,3 C 92 % 1010,1 hPa 0,0 l/m 0 min 0 min 0 W/m 6,4 km/h (2 Bft) 97,83 %
21.10.2021 19:00 8,8 C 7,8 C 7,3 C 92 % 1010,1 hPa 0,0 l/m 0 min 0 min 0 W/m 9,7 km/h (2 Bft) 97,87 %
21.10.2021 19:02 8,8 C 7,8 C 7,3 C 92 % 1010,1 hPa 0,0 l/m 0 min 0 min 0 W/m 3,2 km/h (1 Bft) 95,83 %
21.10.2021 19:04 8,7 C 7,8 C 7,3 C 92 % 1010,2 hPa 0,0 l/m 0 min 0 min 0 W/m 6,4 km/h (2 Bft) 97,87 %
21.10.2021 19:06 8,7 C 7,8 C 7,3 C 92 % 1010,3 hPa 0,0 l/m 0 min 0 min 0 W/m 6,4 km/h (2 Bft) 97,83 %
21.10.2021 19:08 8,7 C 8,3 C 7,3 C 92 % 1010,3 hPa 0,0 l/m 0 min 0 min 0 W/m 12,9 km/h (3 Bft) 97,87 %
21.10.2021 19:10 8,7 C 8,3 C 7,3 C 92 % 1010,3 hPa 0,0 l/m 0 min 0 min 0 W/m 6,4 km/h (2 Bft) 97,87 %
21.10.2021 19:12 8,7 C 8,3 C 7,3 C 92 % 1010,4 hPa 0,0 l/m 0 min 0 min 0 W/m 16,1 km/h (3 Bft) 100,00 %
21.10.2021 19:14 8,6 C 8,3 C 7,3 C 92 % 1010,5 hPa 0,0 l/m 0 min 0 min 0 W/m 9,7 km/h (2 Bft) 97,87 %
21.10.2021 19:16 8,6 C 8,3 C 7,3 C 92 % 1010,5 hPa 0,0 l/m 0 min 0 min 0 W/m 6,4 km/h (2 Bft) 100,00 %
21.10.2021 19:18 8,6 C 8,3 C 7,3 C 92 % 1010,5 hPa 0,0 l/m 0 min 0 min 0 W/m 9,7 km/h (2 Bft) 97,83 %
21.10.2021 19:20 8,6 C 7,8 C 7,3 C 92 % 1010,5 hPa 0,0 l/m 0 min 0 min 0 W/m 6,4 km/h (2 Bft) 100,00 %
21.10.2021 19:22 8,6 C 7,8 C 7,3 C 92 % 1010,6 hPa 0,0 l/m 0 min 0 min 0 W/m 6,4 km/h (2 Bft) 100,00 %
21.10.2021 19:24 8,6 C 7,8 C 7,3 C 92 % 1010,7 hPa 0,0 l/m 0 min 0 min 0 W/m 6,4 km/h (2 Bft) 100,00 %
21.10.2021 19:26 8,5 C 7,8 C 7,3 C 92 % 1010,7 hPa 0,0 l/m 0 min 0 min 0 W/m 6,4 km/h (2 Bft) 97,87 %
21.10.2021 19:28 8,5 C 7,8 C 7,3 C 92 % 1010,8 hPa 0,0 l/m 0 min 0 min 0 W/m 9,7 km/h (2 Bft) 100,00 %
21.10.2021 19:30 8,5 C 7,8 C 7,3 C 92 % 1010,8 hPa 0,0 l/m 0 min 0 min 0 W/m 9,7 km/h (2 Bft) 56,52 %
21.10.2021 19:32 8,5 C 7,8 C 7,3 C 92 % 1010,8 hPa 0,0 l/m 0 min 0 min 0 W/m 12,9 km/h (3 Bft) 100,00 %
21.10.2021 19:34 8,4 C 7,8 C 7,3 C 91 % 1010,8 hPa 0,0 l/m 0 min 0 min 0 W/m 6,4 km/h (2 Bft) 100,00 %
21.10.2021 19:36 8,4 C 7,8 C 7,3 C 91 % 1010,8 hPa 0,0 l/m 0 min 0 min 0 W/m 16,1 km/h (3 Bft) 100,00 %
21.10.2021 19:38 8,4 C 7,8 C 7,3 C 91 % 1010,9 hPa 0,0 l/m 0 min 0 min 0 W/m 6,4 km/h (2 Bft) 100,00 %
21.10.2021 19:40 8,3 C 7,8 C 7,3 C 91 % 1010,9 hPa 0,0 l/m 0 min 0 min 0 W/m 12,9 km/h (3 Bft) 100,00 %
21.10.2021 19:42 8,3 C 7,8 C 7,3 C 91 % 1011,0 hPa 0,0 l/m 0 min 0 min 0 W/m 9,7 km/h (2 Bft) 100,00 %
21.10.2021 19:44 8,3 C 7,8 C 7,3 C 91 % 1011,0 hPa 0,0 l/m 0 min 0 min 0 W/m 16,1 km/h (3 Bft) 100,00 %
21.10.2021 19:46 8,3 C 7,8 C 7,3 C 91 % 1011,0 hPa 0,0 l/m 0 min 0 min 0 W/m 6,4 km/h (2 Bft) 100,00 %
21.10.2021 19:48 8,3 C 7,8 C 7,3 C 91 % 1011,0 hPa 0,0 l/m 0 min 0 min 0 W/m 6,4 km/h (2 Bft) 100,00 %
21.10.2021 19:50 8,2 C 7,8 C 7,3 C 91 % 1011,1 hPa 0,0 l/m 0 min 0 min 0 W/m 3,2 km/h (1 Bft) 100,00 %
21.10.2021 19:52 8,2 C 7,8 C 7,3 C 90 % 1011,1 hPa 0,0 l/m 0 min 0 min 0 W/m 9,7 km/h (2 Bft) 100,00 %
21.10.2021 19:54 8,2 C 7,8 C 7,3 C 90 % 1011,2 hPa 0,0 l/m 0 min 0 min 0 W/m 6,4 km/h (2 Bft) 100,00 %
21.10.2021 19:56 8,1 C 7,8 C 6,7 C 90 % 1011,2 hPa 0,0 l/m 0 min 0 min 0 W/m 12,9 km/h (3 Bft) 100,00 %
21.10.2021 19:58 8,1 C 7,8 C 6,7 C 90 % 1011,3 hPa 0,0 l/m 0 min 0 min 0 W/m 16,1 km/h (3 Bft) 100,00 %
21.10.2021 20:00 8,1 C 7,8 C 6,7 C 90 % 1011,3 hPa 0,0 l/m 0 min 0 min 0 W/m 16,1 km/h (3 Bft) 100,00 %
21.10.2021 20:02 8,1 C 7,2 C 6,7 C 90 % 1011,3 hPa 0,0 l/m 0 min 0 min 0 W/m 9,7 km/h (2 Bft) 100,00 %
21.10.2021 20:04 8,1 C 7,2 C 6,7 C 90 % 1011,4 hPa 0,0 l/m 0 min 0 min 0 W/m 12,9 km/h (3 Bft) 98,31 %
21.10.2021 20:06 8,0 C 7,2 C 6,7 C 90 % 1011,5 hPa 0,0 l/m 0 min 0 min 0 W/m 9,7 km/h (2 Bft) 100,00 %
21.10.2021 20:08 8,0 C 7,2 C 6,7 C 90 % 1011,5 hPa 0,0 l/m 0 min 0 min 0 W/m 16,1 km/h (3 Bft) 100,00 %
21.10.2021 20:10 8,0 C 7,2 C 6,7 C 90 % 1011,6 hPa 0,0 l/m 0 min 0 min 0 W/m 6,4 km/h (2 Bft) 100,00 %
21.10.2021 20:12 8,0 C 7,2 C 6,7 C 90 % 1011,6 hPa 0,0 l/m 0 min 0 min 0 W/m 12,9 km/h (3 Bft) 97,87 %
21.10.2021 20:14 7,9 C 7,2 C 6,7 C 89 % 1011,6 hPa 0,0 l/m 0 min 0 min 0 W/m 9,7 km/h (2 Bft) 100,00 %
21.10.2021 20:16 7,9 C 7,2 C 6,7 C 89 % 1011,7 hPa 0,0 l/m 0 min 0 min 0 W/m 9,7 km/h (2 Bft) 95,74 %
21.10.2021 20:18 7,9 C 7,2 C 6,7 C 89 % 1011,7 hPa 0,0 l/m 0 min 0 min 0 W/m 19,3 km/h (3 Bft) 100,00 %
21.10.2021 20:20 7,9 C 7,2 C 6,7 C 89 % 1011,6 hPa 0,0 l/m 0 min 0 min 0 W/m 12,9 km/h (3 Bft) 97,87 %
21.10.2021 20:22 7,8 C 7,2 C 6,7 C 90 % 1011,8 hPa 0,0 l/m 0 min 0 min 0 W/m 9,7 km/h (2 Bft) 100,00 %
21.10.2021 20:24 7,8 C 7,2 C 6,7 C 90 % 1011,8 hPa 0,0 l/m 0 min 0 min 0 W/m 6,4 km/h (2 Bft) 97,87 %
21.10.2021 20:26 7,8 C 7,2 C 6,7 C 90 % 1011,8 hPa 0,0 l/m 0 min 0 min 0 W/m 6,4 km/h (2 Bft) 97,87 %
21.10.2021 20:28 7,8 C 7,2 C 6,7 C 90 % 1011,8 hPa 0,0 l/m 0 min 0 min 0 W/m 9,7 km/h (2 Bft) 95,74 %
21.10.2021 20:30 7,7 C 7,2 C 6,7 C 90 % 1011,8 hPa 0,0 l/m 0 min 0 min 0 W/m 9,7 km/h (2 Bft) 93,62 %
21.10.2021 20:32 7,7 C 7,2 C 6,7 C 90 % 1011,9 hPa 0,0 l/m 0 min 0 min 0 W/m 9,7 km/h (2 Bft) 93,62 %
21.10.2021 20:34 7,6 C 7,2 C 6,7 C 90 % 1011,9 hPa 0,0 l/m 0 min 0 min 0 W/m 12,9 km/h (3 Bft) 93,48 %
21.10.2021 20:36 7,6 C 6,7 C 6,7 C 90 % 1011,9 hPa 0,0 l/m 0 min 0 min 0 W/m 3,2 km/h (1 Bft) 93,62 %
21.10.2021 20:38 7,6 C 6,7 C 6,7 C 90 % 1012,0 hPa 0,0 l/m 0 min 0 min 0 W/m 6,4 km/h (2 Bft) 93,22 %
21.10.2021 20:40 7,5 C 6,7 C 6,1 C 90 % 1012,0 hPa 0,0 l/m 0 min 0 min 0 W/m 12,9 km/h (3 Bft) 91,43 %
21.10.2021 20:42 7,5 C 6,7 C 6,1 C 90 % 1012,0 hPa 0,0 l/m 0 min 0 min 0 W/m 6,4 km/h (2 Bft) 92,98 %
21.10.2021 20:44 7,5 C 6,7 C 6,1 C 90 % 1012,1 hPa 0,0 l/m 0 min 0 min 0 W/m 6,4 km/h (2 Bft) 93,62 %
21.10.2021 20:46 7,5 C 6,7 C 6,1 C 90 % 1012,1 hPa 0,0 l/m 0 min 0 min 0 W/m 9,7 km/h (2 Bft) 93,62 %
21.10.2021 20:48 7,5 C 6,7 C 6,1 C 90 % 1012,1 hPa 0,0 l/m 0 min 0 min 0 W/m 6,4 km/h (2 Bft) 93,62 %
21.10.2021 20:50 7,4 C 6,7 C 6,1 C 90 % 1012,2 hPa 0,0 l/m 0 min 0 min 0 W/m 6,4 km/h (2 Bft) 93,62 %
21.10.2021 20:52 7,4 C 6,7 C 6,1 C 90 % 1012,2 hPa 0,0 l/m 0 min 0 min 0 W/m 9,7 km/h (2 Bft) 93,62 %
21.10.2021 20:54 7,4 C 6,7 C 6,1 C 90 % 1012,3 hPa 0,0 l/m 0 min 0 min 0 W/m 6,4 km/h (2 Bft) 93,48 %
21.10.2021 20:56 7,4 C 6,7 C 6,1 C 90 % 1012,3 hPa 0,0 l/m 0 min 0 min 0 W/m 6,4 km/h (2 Bft) 91,49 %
21.10.2021 20:58 7,4 C 6,7 C 6,1 C 90 % 1012,3 hPa 0,0 l/m 0 min 0 min 0 W/m 3,2 km/h (1 Bft) 95,74 %
21.10.2021 21:00 7,3 C 6,7 C 6,1 C 90 % 1012,4 hPa 0,0 l/m 0 min 0 min 0 W/m 6,4 km/h (2 Bft) 95,74 %
21.10.2021 21:02 7,3 C 6,7 C 6,1 C 90 % 1012,4 hPa 0,0 l/m 0 min 0 min 0 W/m 3,2 km/h (1 Bft) 95,74 %
21.10.2021 21:04 7,3 C 6,7 C 6,1 C 90 % 1012,4 hPa 0,0 l/m 0 min 0 min 0 W/m 6,4 km/h (2 Bft) 95,74 %
21.10.2021 21:06 7,3 C 6,7 C 6,1 C 90 % 1012,5 hPa 0,0 l/m 0 min 0 min 0 W/m 6,4 km/h (2 Bft) 95,65 %
21.10.2021 21:08 7,2 C 6,7 C 6,1 C 90 % 1012,5 hPa 0,0 l/m 0 min 0 min 0 W/m 9,7 km/h (2 Bft) 95,74 %
21.10.2021 21:10 7,2 C 6,7 C 6,1 C 90 % 1012,6 hPa 0,0 l/m 0 min 0 min 0 W/m 6,4 km/h (2 Bft) 95,74 %
21.10.2021 21:12 7,1 C 6,7 C 6,1 C 91 % 1012,6 hPa 0,0 l/m 0 min 0 min 0 W/m 6,4 km/h (2 Bft) 93,62 %
21.10.2021 21:14 7,1 C 6,7 C 6,1 C 91 % 1012,7 hPa 0,0 l/m 0 min 0 min 0 W/m 9,7 km/h (2 Bft) 97,87 %
21.10.2021 21:16 7,1 C 6,7 C 6,1 C 91 % 1012,7 hPa 0,0 l/m 0 min 0 min 0 W/m 6,4 km/h (2 Bft) 97,87 %
21.10.2021 21:18 7,1 C 6,7 C 6,1 C 91 % 1012,7 hPa 0,0 l/m 0 min 0 min 0 W/m 6,4 km/h (2 Bft) 97,83 %
21.10.2021 21:20 7,1 C 6,1 C 6,1 C 91 % 1012,8 hPa 0,0 l/m 0 min 0 min 0 W/m 3,2 km/h (1 Bft) 95,74 %
21.10.2021 21:22 7,1 C 6,1 C 6,1 C 91 % 1012,9 hPa 0,0 l/m 0 min 0 min 0 W/m 6,4 km/h (2 Bft) 97,87 %
21.10.2021 21:24 7,0 C 6,7 C 6,1 C 91 % 1012,9 hPa 0,0 l/m 0 min 0 min 0 W/m 3,2 km/h (1 Bft) 97,87 %
21.10.2021 21:26 7,0 C 6,1 C 6,1 C 91 % 1012,9 hPa 0,0 l/m 0 min 0 min 0 W/m 6,4 km/h (2 Bft) 97,87 %
21.10.2021 21:28 7,0 C 6,1 C 6,1 C 91 % 1013,0 hPa 0,0 l/m 0 min 0 min 0 W/m 6,4 km/h (2 Bft) 95,74 %
21.10.2021 21:30 7,0 C 6,1 C 6,1 C 91 % 1013,0 hPa 0,0 l/m 0 min 0 min 0 W/m 6,4 km/h (2 Bft) 97,83 %
21.10.2021 21:32 7,0 C 6,1 C 6,1 C 91 % 1013,0 hPa 0,0 l/m 0 min 0 min 0 W/m 9,7 km/h (2 Bft) 95,74 %
21.10.2021 21:34 7,0 C 6,1 C 6,1 C 91 % 1013,1 hPa 0,0 l/m 0 min 0 min 0 W/m 3,2 km/h (1 Bft) 100,00 %
21.10.2021 21:36 6,9 C 6,1 C 6,1 C 91 % 1013,1 hPa 0,0 l/m 0 min 0 min 0 W/m 6,4 km/h (2 Bft) 100,00 %
21.10.2021 21:38 6,9 C 6,1 C 6,1 C 91 % 1013,2 hPa 0,0 l/m 0 min 0 min 0 W/m 3,2 km/h (1 Bft) 100,00 %
21.10.2021 21:40 6,9 C 6,1 C 6,1 C 91 % 1013,2 hPa 0,0 l/m 0 min 0 min 0 W/m 6,4 km/h (2 Bft) 97,83 %
21.10.2021 21:42 6,9 C 6,1 C 6,1 C 91 % 1013,3 hPa 0,0 l/m 0 min 0 min 0 W/m 6,4 km/h (2 Bft) 97,87 %
21.10.2021 21:44 6,9 C 6,1 C 6,1 C 91 % 1013,3 hPa 0,0 l/m 0 min 0 min 0 W/m 3,2 km/h (1 Bft) 100,00 %
21.10.2021 21:46 6,8 C 6,1 C 6,1 C 91 % 1013,3 hPa 0,0 l/m 0 min 0 min 0 W/m 6,4 km/h (2 Bft) 97,87 %
21.10.2021 21:48 6,8 C 6,1 C 6,1 C 91 % 1013,3 hPa 0,0 l/m 0 min 0 min 0 W/m 6,4 km/h (2 Bft) 100,00 %
21.10.2021 21:50 6,8 C 6,1 C 6,1 C 91 % 1013,3 hPa 0,0 l/m 0 min 0 min 0 W/m 6,4 km/h (2 Bft) 97,87 %
21.10.2021 21:52 6,8 C 6,1 C 6,1 C 91 % 1013,3 hPa 0,0 l/m 0 min 0 min 0 W/m 6,4 km/h (2 Bft) 100,00 %
21.10.2021 21:54 6,8 C 6,1 C 6,1 C 91 % 1013,3 hPa 0,0 l/m 0 min 0 min 0 W/m 6,4 km/h (2 Bft) 97,87 %
21.10.2021 21:56 6,9 C 6,7 C 6,1 C 91 % 1013,4 hPa 0,0 l/m 0 min 0 min 0 W/m 3,2 km/h (1 Bft) 100,00 %
21.10.2021 21:58 6,9 C 6,7 C 6,1 C 91 % 1013,4 hPa 0,0 l/m 0 min 0 min 0 W/m 3,2 km/h (1 Bft) 100,00 %
21.10.2021 22:00 6,9 C 6,1 C 6,1 C 91 % 1013,4 hPa 0,0 l/m 0 min 0 min 0 W/m 6,4 km/h (2 Bft) 100,00 %
21.10.2021 22:02 6,9 C 6,7 C 6,1 C 91 % 1013,5 hPa 0,0 l/m 0 min 0 min 0 W/m 6,4 km/h (2 Bft) 97,87 %
21.10.2021 22:04 6,9 C 6,1 C 6,1 C 91 % 1013,5 hPa 0,0 l/m 0 min 0 min 0 W/m 3,2 km/h (1 Bft) 100,00 %
21.10.2021 22:06 6,9 C 6,1 C 6,1 C 91 % 1013,5 hPa 0,0 l/m 0 min 0 min 0 W/m 6,4 km/h (2 Bft) 97,87 %
21.10.2021 22:08 6,9 C 6,1 C 6,1 C 91 % 1013,5 hPa 0,0 l/m 0 min 0 min 0 W/m 6,4 km/h (2 Bft) 97,87 %
21.10.2021 22:10 6,8 C 6,1 C 6,1 C 91 % 1013,6 hPa 0,0 l/m 0 min 0 min 0 W/m 12,9 km/h (3 Bft) 95,74 %
21.10.2021 22:12 6,8 C 6,1 C 6,1 C 91 % 1013,6 hPa 0,0 l/m 0 min 0 min 0 W/m 6,4 km/h (2 Bft) 97,87 %
21.10.2021 22:14 6,8 C 6,1 C 6,1 C 91 % 1013,6 hPa 0,0 l/m 0 min 0 min 0 W/m 6,4 km/h (2 Bft) 95,74 %
21.10.2021 22:16 6,8 C 6,1 C 6,1 C 91 % 1013,6 hPa 0,0 l/m 0 min 0 min 0 W/m 6,4 km/h (2 Bft) 97,83 %
21.10.2021 22:18 6,8 C 6,1 C 6,1 C 91 % 1013,7 hPa 0,0 l/m 0 min 0 min 0 W/m 6,4 km/h (2 Bft) 97,87 %
21.10.2021 22:20 6,8 C 6,1 C 6,1 C 92 % 1013,7 hPa 0,0 l/m 0 min 0 min 0 W/m 6,4 km/h (2 Bft) 97,87 %
21.10.2021 22:22 6,8 C 6,1 C 5,6 C 92 % 1013,7 hPa 0,0 l/m 0 min 0 min 0 W/m 6,4 km/h (2 Bft) 95,74 %
21.10.2021 22:24 6,7 C 6,1 C 5,6 C 92 % 1013,8 hPa 0,0 l/m 0 min 0 min 0 W/m 9,7 km/h (2 Bft) 97,87 %
21.10.2021 22:26 6,7 C 6,1 C 5,6 C 92 % 1013,9 hPa 0,0 l/m 0 min 0 min 0 W/m 6,4 km/h (2 Bft) 97,87 %
21.10.2021 22:28 6,7 C 6,1 C 5,6 C 92 % 1013,9 hPa 0,0 l/m 0 min 0 min 0 W/m 6,4 km/h (2 Bft) 97,83 %
21.10.2021 22:30 6,7 C 6,1 C 5,6 C 92 % 1013,9 hPa 0,0 l/m 0 min 0 min 0 W/m 9,7 km/h (2 Bft) 97,87 %
21.10.2021 22:32 6,6 C 6,1 C 5,6 C 92 % 1013,9 hPa 0,0 l/m 0 min 0 min 0 W/m 6,4 km/h (2 Bft) 97,87 %
21.10.2021 22:34 6,6 C 6,1 C 5,6 C 92 % 1013,9 hPa 0,0 l/m 0 min 0 min 0 W/m 6,4 km/h (2 Bft) 97,87 %
21.10.2021 22:36 6,6 C 6,1 C 5,6 C 92 % 1014,1 hPa 0,0 l/m 0 min 0 min 0 W/m 12,9 km/h (3 Bft) 100,00 %
21.10.2021 22:38 6,6 C 6,1 C 5,6 C 92 % 1014,1 hPa 0,0 l/m 0 min 0 min 0 W/m 6,4 km/h (2 Bft) 100,00 %
21.10.2021 22:40 6,6 C 6,1 C 5,6 C 92 % 1014,1 hPa 0,0 l/m 0 min 0 min 0 W/m 12,9 km/h (3 Bft) 100,00 %
21.10.2021 22:42 6,6 C 6,1 C 5,6 C 92 % 1014,2 hPa 0,0 l/m 0 min 0 min 0 W/m 9,7 km/h (2 Bft) 95,74 %
21.10.2021 22:44 6,6 C 6,1 C 5,6 C 92 % 1014,2 hPa 0,0 l/m 0 min 0 min 0 W/m 6,4 km/h (2 Bft) 100,00 %
21.10.2021 22:46 6,6 C 6,1 C 5,6 C 92 % 1014,2 hPa 0,0 l/m 0 min 0 min 0 W/m 12,9 km/h (3 Bft) 97,87 %
21.10.2021 22:48 6,6 C 6,1 C 5,6 C 92 % 1014,2 hPa 0,0 l/m 0 min 0 min 0 W/m 6,4 km/h (2 Bft) 97,87 %
21.10.2021 22:50 6,6 C 6,1 C 5,6 C 92 % 1014,3 hPa 0,0 l/m 0 min 0 min 0 W/m 6,4 km/h (2 Bft) 97,87 %
21.10.2021 22:52 6,6 C 6,1 C 5,6 C 92 % 1014,4 hPa 0,0 l/m 0 min 0 min 0 W/m 6,4 km/h (2 Bft) 95,65 %
21.10.2021 22:54 6,5 C 6,1 C 5,6 C 92 % 1014,3 hPa 0,0 l/m 0 min 0 min 0 W/m 6,4 km/h (2 Bft) 97,87 %
21.10.2021 22:56 6,5 C 6,1 C 5,6 C 92 % 1014,3 hPa 0,0 l/m 0 min 0 min 0 W/m 6,4 km/h (2 Bft) 97,87 %
21.10.2021 22:58 6,5 C 5,6 C 5,6 C 92 % 1014,4 hPa 0,0 l/m 0 min 0 min 0 W/m 6,4 km/h (2 Bft) 97,87 %
21.10.2021 23:00 6,5 C 5,6 C 5,6 C 92 % 1014,4 hPa 0,0 l/m 0 min 0 min 0 W/m 6,4 km/h (2 Bft) 97,30 %
21.10.2021 23:02 6,5 C 5,6 C 5,6 C 92 % 1014,4 hPa 0,0 l/m 0 min 0 min 0 W/m 3,2 km/h (1 Bft) 97,87 %
21.10.2021 23:04 6,4 C 5,6 C 5,6 C 92 % 1014,4 hPa 0,0 l/m 0 min 0 min 0 W/m 6,4 km/h (2 Bft) 97,92 %
21.10.2021 23:06 6,4 C 5,6 C 5,6 C 92 % 1014,4 hPa 0,0 l/m 0 min 0 min 0 W/m 6,4 km/h (2 Bft) 95,65 %
21.10.2021 23:08 6,4 C 5,6 C 5,6 C 92 % 1014,4 hPa 0,0 l/m 0 min 0 min 0 W/m 3,2 km/h (1 Bft) 97,87 %
21.10.2021 23:10 6,4 C 5,6 C 5,6 C 92 % 1014,4 hPa 0,0 l/m 0 min 0 min 0 W/m 6,4 km/h (2 Bft) 97,87 %
21.10.2021 23:12 6,4 C 5,6 C 5,6 C 92 % 1014,5 hPa 0,0 l/m 0 min 0 min 0 W/m 3,2 km/h (1 Bft) 97,87 %
21.10.2021 23:14 6,4 C 5,6 C 5,6 C 92 % 1014,5 hPa 0,0 l/m 0 min 0 min 0 W/m 6,4 km/h (2 Bft) 97,87 %
21.10.2021 23:16 6,3 C 5,6 C 5,6 C 92 % 1014,6 hPa 0,0 l/m 0 min 0 min 0 W/m 3,2 km/h (1 Bft) 97,87 %
21.10.2021 23:18 6,3 C 5,6 C 5,6 C 92 % 1014,5 hPa 0,0 l/m 0 min 0 min 0 W/m 6,4 km/h (2 Bft) 95,65 %
21.10.2021 23:20 6,3 C 5,6 C 5,6 C 92 % 1014,6 hPa 0,0 l/m 0 min 0 min 0 W/m 3,2 km/h (1 Bft) 98,00 %
21.10.2021 23:22 6,3 C 5,6 C 5,6 C 92 % 1014,6 hPa 0,0 l/m 0 min 0 min 0 W/m 6,4 km/h (2 Bft) 97,83 %
21.10.2021 23:24 6,3 C 5,6 C 5,6 C 92 % 1014,6 hPa 0,0 l/m 0 min 0 min 0 W/m 6,4 km/h (2 Bft) 97,87 %
21.10.2021 23:26 6,3 C 5,6 C 5,6 C 92 % 1014,6 hPa 0,0 l/m 0 min 0 min 0 W/m 6,4 km/h (2 Bft) 100,00 %
21.10.2021 23:28 6,3 C 5,6 C 5,6 C 92 % 1014,7 hPa 0,0 l/m 0 min 0 min 0 W/m 6,4 km/h (2 Bft) 97,87 %
21.10.2021 23:30 6,3 C 5,6 C 5,6 C 93 % 1014,7 hPa 0,0 l/m 0 min 0 min 0 W/m 6,4 km/h (2 Bft) 100,00 %
21.10.2021 23:32 6,3 C 5,6 C 5,6 C 93 % 1014,7 hPa 0,0 l/m 0 min 0 min 0 W/m 9,7 km/h (2 Bft) 100,00 %
21.10.2021 23:34 6,3 C 5,6 C 5,6 C 93 % 1014,7 hPa 0,0 l/m 0 min 0 min 0 W/m 3,2 km/h (1 Bft) 100,00 %
21.10.2021 23:36 6,3 C 6,1 C 5,6 C 93 % 1014,7 hPa 0,0 l/m 0 min 0 min 0 W/m 6,4 km/h (2 Bft) 100,00 %
21.10.2021 23:38 6,3 C 6,1 C 5,6 C 93 % 1014,7 hPa 0,0 l/m 0 min 0 min 0 W/m 6,4 km/h (2 Bft) 97,87 %
21.10.2021 23:40 6,4 C 6,1 C 5,6 C 93 % 1014,8 hPa 0,0 l/m 0 min 0 min 0 W/m 3,2 km/h (1 Bft) 100,00 %
21.10.2021 23:42 6,4 C 6,1 C 5,6 C 93 % 1014,8 hPa 0,0 l/m 0 min 0 min 0 W/m 3,2 km/h (1 Bft) 100,00 %
21.10.2021 23:44 6,4 C 6,1 C 5,6 C 93 % 1014,8 hPa 0,0 l/m 0 min 0 min 0 W/m 3,2 km/h (1 Bft) 100,00 %
21.10.2021 23:46 6,4 C 5,6 C 5,6 C 93 % 1014,8 hPa 0,0 l/m 0 min 0 min 0 W/m 6,4 km/h (2 Bft) 100,00 %
21.10.2021 23:48 6,4 C 5,6 C 5,6 C 93 % 1014,9 hPa 0,0 l/m 0 min 0 min 0 W/m 6,4 km/h (2 Bft) 97,87 %
21.10.2021 23:50 6,3 C 5,6 C 5,6 C 93 % 1014,9 hPa 0,0 l/m 0 min 0 min 0 W/m 9,7 km/h (2 Bft) 97,87 %
21.10.2021 23:52 6,3 C 5,6 C 5,6 C 93 % 1014,9 hPa 0,0 l/m 0 min 0 min 0 W/m 6,4 km/h (2 Bft) 95,74 %
21.10.2021 23:54 6,3 C 5,6 C 5,6 C 93 % 1014,9 hPa 0,0 l/m 0 min 0 min 0 W/m 3,2 km/h (1 Bft) 93,62 %
21.10.2021 23:56 6,3 C 5,6 C 5,6 C 93 % 1014,9 hPa 0,0 l/m 0 min 0 min 0 W/m 6,4 km/h (2 Bft) 97,87 %
21.10.2021 23:58 6,3 C 5,6 C 5,6 C 93 % 1014,8 hPa 0,0 l/m 0 min 0 min 0 W/m 6,4 km/h (2 Bft) 97,83 %
_ Min-Zeit 23:16 22:58 22:22 05:58 07:28 - - - - 00:00 14:20
Minimum _ 6,3 C 5,6 C 5,6 C 79 % 988,4 hPa - - - - 3,2 km/h (1 Bft) 43,24 %
_ Max-Zeit 01:54 14:08 00:00 08:50 23:48 02:30 17:55 02:00 14:14 05:44 00:08
Maximum _ 15,5 C 15,6 C 12,3 C 94 % 1014,9 hPa 0,6 l/m 5 min 2 min 590 W/m 80,5 km/h
S-SW (9 Bft)
100,00 %
Durchschnitt _ 10,9 C 10,3 C 8,9 C 88 % 1001,1 hPa #7,6 l/m #1:36 h #5:50 h 113 W/m 23,8 km/h (4 Bft) 97,52 %
© 2021 W. Hausmann